Time,TemperatureF,DewpointF,PressureIn,WindDirection,WindDirectionDegrees,WindSpeedMPH,WindSpeedGustMPH,Humidity,HourlyPrecipIn,Conditions,Clouds,dailyrainin,SoftwareType,DateUTC
2013-01-15 00:02:00,24.6,21.6,30.38,North,6,2.0,4.0,88,0.00,,,0.00,Wunderground v.1.15,2013-01-15 05:02:00,
2013-01-15 00:04:00,24.7,21.7,30.38,North,5,1.0,4.0,88,0.00,,,0.00,Wunderground v.1.15,2013-01-15 05:04:00,
2013-01-15 00:05:00,24.7,21.7,30.38,North,6,3.0,4.0,88,0.00,,,0.00,Wunderground v.1.15,2013-01-15 05:05:00,
2013-01-15 00:08:00,24.7,21.4,30.38,North,5,4.0,4.0,87,0.00,,,0.00,Wunderground v.1.15,2013-01-15 05:08:00,
2013-01-15 00:10:00,24.7,21.4,30.38,NNE,20,0.0,2.0,87,0.00,,,0.00,Wunderground v.1.15,2013-01-15 05:10:00,
2013-01-15 00:13:00,24.7,21.4,30.38,NNE,22,3.0,4.0,87,0.00,,,0.00,Wunderground v.1.15,2013-01-15 05:13:00,
2013-01-15 00:15:00,24.7,21.4,30.38,NNE,22,1.0,4.0,87,0.00,,,0.00,Wunderground v.1.15,2013-01-15 05:15:00,
2013-01-15 00:17:00,24.7,21.4,30.38,NNE,22,0.0,4.0,87,0.00,,,0.00,Wunderground v.1.15,2013-01-15 05:17:00,
2013-01-15 00:19:00,24.6,21.3,30.39,NNE,22,4.0,4.0,87,0.00,,,0.00,Wunderground v.1.15,2013-01-15 05:19:00,
2013-01-15 00:24:00,24.5,21.2,30.39,North,359,0.0,5.0,87,0.00,,,0.00,Wunderground v.1.15,2013-01-15 05:24:00,
2013-01-15 00:25:00,24.5,21.2,30.39,North,359,1.0,5.0,87,0.00,,,0.00,Wunderground v.1.15,2013-01-15 05:25:00,
2013-01-15 00:27:00,24.5,21.2,30.39,North,359,3.0,5.0,87,0.00,,,0.00,Wunderground v.1.15,2013-01-15 05:27:00,
2013-01-15 00:30:00,24.4,21.1,30.39,North,360,2.0,3.0,87,0.00,,,0.00,Wunderground v.1.15,2013-01-15 05:30:00,
2013-01-15 00:34:00,24.3,21.0,30.39,North,1,0.0,3.0,87,0.00,,,0.00,Wunderground v.1.15,2013-01-15 05:34:00,
2013-01-15 00:36:00,24.3,21.0,30.39,North,2,3.0,3.0,87,0.00,,,0.00,Wunderground v.1.15,2013-01-15 05:36:00,
2013-01-15 00:38:00,24.2,20.9,30.39,North,1,5.0,5.0,87,0.00,,,0.00,Wunderground v.1.15,2013-01-15 05:38:00,
2013-01-15 00:42:00,24.1,20.8,30.39,North,360,1.0,5.0,87,0.00,,,0.00,Wunderground v.1.15,2013-01-15 05:42:00,
2013-01-15 00:44:00,24.1,20.8,30.39,North,360,2.0,5.0,87,0.00,,,0.00,Wunderground v.1.15,2013-01-15 05:44:00,
2013-01-15 00:47:00,24.0,20.7,30.39,North,5,2.0,5.0,87,0.00,,,0.00,Wunderground v.1.15,2013-01-15 05:47:00,
2013-01-15 00:52:00,23.9,20.6,30.38,North,5,1.0,3.0,87,0.00,,,0.00,Wunderground v.1.15,2013-01-15 05:52:00,
2013-01-15 00:53:00,23.9,20.6,30.38,North,7,7.0,7.0,87,0.00,,,0.00,Wunderground v.1.15,2013-01-15 05:53:00,
2013-01-15 00:54:00,23.8,20.5,30.38,North,8,3.0,7.0,87,0.00,,,0.00,Wunderground v.1.15,2013-01-15 05:54:00,
2013-01-15 00:56:00,23.8,20.5,30.38,North,4,3.0,7.0,87,0.00,,,0.00,Wunderground v.1.15,2013-01-15 05:56:00,
2013-01-15 00:59:00,23.8,20.5,30.38,North,6,0.0,7.0,87,0.00,,,0.00,Wunderground v.1.15,2013-01-15 05:59:00,
2013-01-15 01:00:00,23.7,20.4,30.38,North,5,0.0,3.0,87,0.00,,,0.00,Wunderground v.1.15,2013-01-15 06:00:00,
2013-01-15 01:01:00,23.7,20.4,30.38,North,9,2.0,3.0,87,0.00,,,0.00,Wunderground v.1.15,2013-01-15 06:01:00,
2013-01-15 01:03:00,23.6,20.3,30.38,North,9,2.0,3.0,87,0.00,,,0.00,Wunderground v.1.15,2013-01-15 06:03:00,
2013-01-15 01:08:00,23.5,20.2,30.38,North,9,0.0,3.0,87,0.00,,,0.00,Wunderground v.1.15,2013-01-15 06:08:00,
2013-01-15 01:09:00,23.5,20.2,30.38,North,9,4.0,4.0,87,0.00,,,0.00,Wunderground v.1.15,2013-01-15 06:09:00,
2013-01-15 01:10:00,23.4,20.1,30.38,NNE,12,0.0,2.0,87,0.00,,,0.00,Wunderground v.1.15,2013-01-15 06:10:00,
2013-01-15 01:15:00,23.3,20.0,30.38,North,9,4.0,4.0,87,0.00,,,0.00,Wunderground v.1.15,2013-01-15 06:15:00,
2013-01-15 01:16:00,23.3,20.0,30.38,North,9,2.0,4.0,87,0.00,,,0.00,Wunderground v.1.15,2013-01-15 06:16:00,
2013-01-15 01:17:00,23.3,20.0,30.38,North,9,0.0,4.0,87,0.00,,,0.00,Wunderground v.1.15,2013-01-15 06:17:00,
2013-01-15 01:22:00,23.2,20.2,30.38,North,8,0.0,1.0,88,0.00,,,0.00,Wunderground v.1.15,2013-01-15 06:22:00,
2013-01-15 01:23:00,23.1,20.1,30.38,North,7,5.0,5.0,88,0.00,,,0.00,Wunderground v.1.15,2013-01-15 06:23:00,
2013-01-15 01:24:00,23.1,20.1,30.38,North,7,3.0,5.0,88,0.00,,,0.00,Wunderground v.1.15,2013-01-15 06:24:00,
2013-01-15 01:27:00,23.1,20.1,30.37,North,7,2.0,5.0,88,0.00,,,0.00,Wunderground v.1.15,2013-01-15 06:27:00,
2013-01-15 01:29:00,23.1,20.1,30.37,North,7,3.0,5.0,88,0.00,,,0.00,Wunderground v.1.15,2013-01-15 06:29:00,
2013-01-15 01:31:00,23.1,20.1,30.37,North,7,0.0,4.0,88,0.00,,,0.00,Wunderground v.1.15,2013-01-15 06:31:00,
2013-01-15 01:32:00,23.1,20.1,30.37,North,4,5.0,5.0,88,0.00,,,0.00,Wunderground v.1.15,2013-01-15 06:32:00,
2013-01-15 01:36:00,23.1,20.1,30.37,NNE,13,0.0,5.0,88,0.00,,,0.00,Wunderground v.1.15,2013-01-15 06:36:00,
2013-01-15 01:37:00,23.1,20.1,30.38,NNE,13,0.0,5.0,88,0.00,,,0.00,Wunderground v.1.15,2013-01-15 06:37:00,
2013-01-15 01:38:00,23.0,20.0,30.38,NNE,13,1.0,5.0,88,0.00,,,0.00,Wunderground v.1.15,2013-01-15 06:38:00,
2013-01-15 01:43:00,23.0,20.0,30.38,NNE,12,3.0,3.0,88,0.00,,,0.00,Wunderground v.1.15,2013-01-15 06:43:00,
2013-01-15 01:44:00,23.0,20.0,30.38,North,11,1.0,3.0,88,0.00,,,0.00,Wunderground v.1.15,2013-01-15 06:44:00,
2013-01-15 01:46:00,22.9,19.9,30.38,North,11,0.0,3.0,88,0.00,,,0.00,Wunderground v.1.15,2013-01-15 06:46:00,
2013-01-15 01:52:00,22.8,19.8,30.38,North,11,0.0,1.0,88,0.00,,,0.00,Wunderground v.1.15,2013-01-15 06:52:00,
2013-01-15 01:53:00,22.8,19.8,30.38,North,11,2.0,2.0,88,0.00,,,0.00,Wunderground v.1.15,2013-01-15 06:53:00,
2013-01-15 01:54:00,22.8,19.8,30.38,North,11,2.0,2.0,88,0.00,,,0.00,Wunderground v.1.15,2013-01-15 06:54:00,
2013-01-15 01:58:00,22.7,19.7,30.38,North,9,2.0,4.0,88,0.00,,,0.00,Wunderground v.1.15,2013-01-15 06:58:00,
2013-01-15 01:59:00,22.7,19.7,30.38,North,8,2.0,4.0,88,0.00,,,0.00,Wunderground v.1.15,2013-01-15 06:59:00,
2013-01-15 02:01:00,22.7,19.7,30.38,North,9,1.0,2.0,88,0.00,,,0.00,Wunderground v.1.15,2013-01-15 07:01:00,
2013-01-15 02:03:00,22.7,19.7,30.38,North,9,0.0,3.0,88,0.00,,,0.00,Wunderground v.1.15,2013-01-15 07:03:00,
2013-01-15 02:04:00,22.7,19.7,30.37,North,9,1.0,3.0,88,0.00,,,0.00,Wunderground v.1.15,2013-01-15 07:04:00,
2013-01-15 02:06:00,22.7,19.9,30.37,North,9,3.0,4.0,89,0.00,,,0.00,Wunderground v.1.15,2013-01-15 07:06:00,
2013-01-15 02:08:00,22.7,19.9,30.37,North,9,0.0,4.0,89,0.00,,,0.00,Wunderground v.1.15,2013-01-15 07:08:00,
2013-01-15 02:09:00,22.7,19.7,30.37,North,9,0.0,4.0,88,0.00,,,0.00,Wunderground v.1.15,2013-01-15 07:09:00,
2013-01-15 02:11:00,22.7,19.9,30.37,North,9,0.0,2.0,89,0.00,,,0.00,Wunderground v.1.15,2013-01-15 07:11:00,
2013-01-15 02:12:00,22.7,19.9,30.37,North,9,4.0,4.0,89,0.00,,,0.00,Wunderground v.1.15,2013-01-15 07:12:00,
2013-01-15 02:13:00,22.7,19.7,30.37,North,9,0.0,4.0,88,0.00,,,0.00,Wunderground v.1.15,2013-01-15 07:13:00,
2013-01-15 02:14:00,22.6,19.6,30.37,North,9,0.0,4.0,88,0.00,,,0.00,Wunderground v.1.15,2013-01-15 07:14:00,
2013-01-15 02:16:00,22.6,19.6,30.37,North,9,0.0,4.0,88,0.00,,,0.00,Wunderground v.1.15,2013-01-15 07:16:00,
2013-01-15 02:17:00,22.6,19.6,30.37,North,9,0.0,4.0,88,0.00,,,0.00,Wunderground v.1.15,2013-01-15 07:17:00,
2013-01-15 02:18:00,22.6,19.6,30.37,North,9,0.0,4.0,88,0.00,,,0.00,Wunderground v.1.15,2013-01-15 07:18:00,
2013-01-15 02:19:00,22.6,19.6,30.37,North,9,2.0,4.0,88,0.00,,,0.00,Wunderground v.1.15,2013-01-15 07:19:00,
2013-01-15 02:21:00,22.6,19.6,30.37,North,9,0.0,3.0,88,0.00,,,0.00,Wunderground v.1.15,2013-01-15 07:21:00,
2013-01-15 02:22:00,22.5,19.5,30.37,North,9,0.0,3.0,88,0.00,,,0.00,Wunderground v.1.15,2013-01-15 07:22:00,
2013-01-15 02:24:00,22.5,19.7,30.37,North,9,0.0,3.0,89,0.00,,,0.00,Wunderground v.1.15,2013-01-15 07:24:00,
2013-01-15 02:26:00,22.5,19.5,30.37,North,9,0.0,4.0,88,0.00,,,0.00,Wunderground v.1.15,2013-01-15 07:26:00,
2013-01-15 02:27:00,22.5,19.7,30.37,North,9,0.0,4.0,89,0.00,,,0.00,Wunderground v.1.15,2013-01-15 07:27:00,
2013-01-15 02:29:00,22.5,19.7,30.37,NNE,14,2.0,7.0,89,0.00,,,0.00,Wunderground v.1.15,2013-01-15 07:29:00,
2013-01-15 02:31:00,22.5,19.7,30.36,NNE,13,2.0,4.0,89,0.00,,,0.00,Wunderground v.1.15,2013-01-15 07:31:00,
2013-01-15 02:32:00,22.5,19.7,30.37,NNE,12,2.0,4.0,89,0.00,,,0.00,Wunderground v.1.15,2013-01-15 07:32:00,
2013-01-15 02:34:00,22.5,19.7,30.36,NNE,12,1.0,5.0,89,0.00,,,0.00,Wunderground v.1.15,2013-01-15 07:34:00,
2013-01-15 02:36:00,22.5,19.7,30.36,NNE,13,1.0,5.0,89,0.00,,,0.00,Wunderground v.1.15,2013-01-15 07:36:00,
2013-01-15 02:37:00,22.5,19.7,30.36,NNE,13,3.0,5.0,89,0.00,,,0.00,Wunderground v.1.15,2013-01-15 07:37:00,
2013-01-15 02:39:00,22.5,19.7,30.36,NNE,12,3.0,5.0,89,0.00,,,0.00,Wunderground v.1.15,2013-01-15 07:39:00,
2013-01-15 02:41:00,22.5,19.7,30.36,North,11,2.0,5.0,89,0.00,,,0.00,Wunderground v.1.15,2013-01-15 07:41:00,
2013-01-15 02:42:00,22.6,19.8,30.36,North,11,1.0,5.0,89,0.00,,,0.00,Wunderground v.1.15,2013-01-15 07:42:00,
2013-01-15 02:44:00,22.6,19.8,30.36,North,11,4.0,5.0,89,0.00,,,0.00,Wunderground v.1.15,2013-01-15 07:44:00,
2013-01-15 02:47:00,22.6,19.8,30.36,NNE,12,0.0,6.0,89,0.00,,,0.00,Wunderground v.1.15,2013-01-15 07:47:00,
2013-01-15 02:48:00,22.6,19.8,30.36,North,11,5.0,6.0,89,0.00,,,0.00,Wunderground v.1.15,2013-01-15 07:48:00,
2013-01-15 02:49:00,22.6,19.8,30.36,North,11,2.0,6.0,89,0.00,,,0.00,Wunderground v.1.15,2013-01-15 07:49:00,
2013-01-15 02:52:00,22.6,19.8,30.36,NNE,15,1.0,7.0,89,0.00,,,0.00,Wunderground v.1.15,2013-01-15 07:52:00,
2013-01-15 02:53:00,22.6,19.8,30.36,NNE,15,2.0,7.0,89,0.00,,,0.00,Wunderground v.1.15,2013-01-15 07:53:00,
2013-01-15 02:54:00,22.6,19.8,30.36,North,8,3.0,7.0,89,0.00,,,0.00,Wunderground v.1.15,2013-01-15 07:54:00,
2013-01-15 02:57:00,22.6,19.8,30.36,North,8,0.0,7.0,89,0.00,,,0.00,Wunderground v.1.15,2013-01-15 07:57:00,
2013-01-15 02:58:00,22.6,19.8,30.36,North,8,1.0,7.0,89,0.00,,,0.00,Wunderground v.1.15,2013-01-15 07:58:00,
2013-01-15 02:59:00,22.7,19.9,30.36,North,7,0.0,7.0,89,0.00,,,0.00,Wunderground v.1.15,2013-01-15 07:59:00,
2013-01-15 03:02:00,22.7,19.9,30.37,North,7,0.0,3.0,89,0.00,,,0.00,Wunderground v.1.15,2013-01-15 08:02:00,
2013-01-15 03:03:00,22.8,20.0,30.37,North,7,0.0,3.0,89,0.00,,,0.00,Wunderground v.1.15,2013-01-15 08:03:00,
2013-01-15 03:05:00,22.8,20.0,30.36,North,7,0.0,3.0,89,0.00,,,0.00,Wunderground v.1.15,2013-01-15 08:05:00,
2013-01-15 03:07:00,22.8,20.0,30.36,North,7,3.0,4.0,89,0.00,,,0.00,Wunderground v.1.15,2013-01-15 08:07:00,
2013-01-15 03:08:00,22.8,20.0,30.36,North,7,0.0,4.0,89,0.00,,,0.00,Wunderground v.1.15,2013-01-15 08:08:00,
2013-01-15 03:10:00,22.7,19.9,30.36,North,7,2.0,3.0,89,0.00,,,0.00,Wunderground v.1.15,2013-01-15 08:10:00,
2013-01-15 03:12:00,22.7,19.9,30.36,North,7,0.0,4.0,89,0.00,,,0.00,Wunderground v.1.15,2013-01-15 08:12:00,
2013-01-15 03:13:00,22.7,19.9,30.36,North,7,2.0,4.0,89,0.00,,,0.00,Wunderground v.1.15,2013-01-15 08:13:00,
2013-01-15 03:14:00,22.7,19.9,30.37,North,7,1.0,4.0,89,0.00,,,0.00,Wunderground v.1.15,2013-01-15 08:14:00,
2013-01-15 03:15:00,22.7,19.9,30.37,North,8,1.0,4.0,89,0.00,,,0.00,Wunderground v.1.15,2013-01-15 08:15:00,
2013-01-15 06:36:00,21.6,19.1,30.35,NNE,29,0.0,2.0,90,0.00,,,0.00,Wunderground v.1.15,2013-01-15 11:36:00,
2013-01-15 06:37:00,21.6,19.1,30.35,NNE,29,0.0,2.0,90,0.00,,,0.00,Wunderground v.1.15,2013-01-15 11:37:00,
2013-01-15 06:42:00,21.6,19.1,30.35,NE,36,6.0,7.0,90,0.00,,,0.00,Wunderground v.1.15,2013-01-15 11:42:00,
2013-01-15 06:47:00,21.7,19.2,30.36,NE,38,2.0,3.0,90,0.00,,,0.00,Wunderground v.1.15,2013-01-15 11:47:00,
2013-01-15 06:52:00,21.8,19.3,30.36,NE,43,2.0,7.0,90,0.00,,,0.00,Wunderground v.1.15,2013-01-15 11:52:00,
2013-01-15 06:57:00,21.9,19.4,30.36,NE,55,3.0,7.0,90,0.00,,,0.00,Wunderground v.1.15,2013-01-15 11:57:00,
2013-01-15 06:58:00,21.9,19.4,30.36,NE,55,0.0,7.0,90,0.00,,,0.00,Wunderground v.1.15,2013-01-15 11:58:00,
2013-01-15 07:02:00,22.0,19.3,30.36,NE,56,2.0,7.0,89,0.00,,,0.00,Wunderground v.1.15,2013-01-15 12:02:00,
2013-01-15 07:03:00,22.0,19.3,30.36,NE,55,2.0,7.0,89,0.00,,,0.00,Wunderground v.1.15,2013-01-15 12:03:00,
2013-01-15 07:07:00,22.0,19.3,30.36,NE,56,4.0,7.0,89,0.00,,,0.00,Wunderground v.1.15,2013-01-15 12:07:00,
2013-01-15 07:08:00,22.1,19.4,30.36,NE,55,1.0,7.0,89,0.00,,,0.00,Wunderground v.1.15,2013-01-15 12:08:00,
2013-01-15 07:12:00,22.1,19.4,30.37,NE,55,0.0,2.0,89,0.00,,,0.00,Wunderground v.1.15,2013-01-15 12:12:00,
2013-01-15 07:13:00,22.1,19.4,30.37,NE,56,1.0,2.0,89,0.00,,,0.00,Wunderground v.1.15,2013-01-15 12:13:00,
2013-01-15 07:17:00,22.0,19.3,30.37,NE,56,1.0,3.0,89,0.00,,,0.00,Wunderground v.1.15,2013-01-15 12:17:00,
2013-01-15 07:18:00,22.0,19.3,30.37,NE,56,2.0,4.0,89,0.00,,,0.00,Wunderground v.1.15,2013-01-15 12:18:00,
2013-01-15 07:22:00,22.0,19.3,30.37,NE,55,0.0,1.0,89,0.00,,,0.00,Wunderground v.1.15,2013-01-15 12:22:00,
2013-01-15 07:23:00,22.0,19.3,30.37,NE,56,0.0,1.0,89,0.00,,,0.00,Wunderground v.1.15,2013-01-15 12:23:00,
2013-01-15 07:24:00,22.0,19.3,30.37,NE,55,3.0,3.0,89,0.00,,,0.00,Wunderground v.1.15,2013-01-15 12:24:00,
2013-01-15 07:27:00,22.0,19.3,30.37,NE,55,1.0,5.0,89,0.00,,,0.00,Wunderground v.1.15,2013-01-15 12:27:00,
2013-01-15 07:28:00,22.0,19.3,30.37,NE,55,0.0,5.0,89,0.00,,,0.00,Wunderground v.1.15,2013-01-15 12:28:00,
2013-01-15 07:29:00,22.0,19.3,30.37,NE,55,3.0,5.0,89,0.00,,,0.00,Wunderground v.1.15,2013-01-15 12:29:00,
2013-01-15 07:32:00,21.9,19.2,30.38,ENE,57,4.0,7.0,89,0.00,,,0.00,Wunderground v.1.15,2013-01-15 12:32:00,
2013-01-15 07:33:00,21.9,19.2,30.38,ENE,57,0.0,7.0,89,0.00,,,0.00,Wunderground v.1.15,2013-01-15 12:33:00,
2013-01-15 07:34:00,22.0,19.3,30.38,ENE,57,0.0,7.0,89,0.00,,,0.00,Wunderground v.1.15,2013-01-15 12:34:00,
2013-01-15 07:38:00,22.0,19.3,30.37,ENE,57,1.0,7.0,89,0.00,,,0.00,Wunderground v.1.15,2013-01-15 12:38:00,
2013-01-15 07:39:00,22.1,19.4,30.37,ENE,57,5.0,7.0,89,0.00,,,0.00,Wunderground v.1.15,2013-01-15 12:39:00,
2013-01-15 07:43:00,22.2,19.5,30.37,ENE,62,0.0,9.0,89,0.00,,,0.00,Wunderground v.1.15,2013-01-15 12:43:00,
2013-01-15 07:44:00,22.2,19.5,30.37,ENE,62,1.0,9.0,89,0.00,,,0.00,Wunderground v.1.15,2013-01-15 12:44:00,
2013-01-15 07:48:00,22.3,19.6,30.37,ENE,63,0.0,9.0,89,0.00,,,0.00,Wunderground v.1.15,2013-01-15 12:48:00,
2013-01-15 07:49:00,22.3,19.6,30.37,ENE,62,3.0,9.0,89,0.00,,,0.00,Wunderground v.1.15,2013-01-15 12:49:00,
2013-01-15 07:53:00,22.4,19.6,30.37,ENE,61,1.0,5.0,89,0.00,,,0.00,Wunderground v.1.15,2013-01-15 12:53:00,
2013-01-15 07:54:00,22.4,19.6,30.37,ENE,61,0.0,5.0,89,0.00,,,0.00,Wunderground v.1.15,2013-01-15 12:54:00,
2013-01-15 07:58:00,22.5,19.7,30.37,ENE,61,0.0,5.0,89,0.00,,,0.00,Wunderground v.1.15,2013-01-15 12:58:00,
2013-01-15 07:59:00,22.5,19.7,30.37,ENE,61,0.0,5.0,89,0.00,,,0.00,Wunderground v.1.15,2013-01-15 12:59:00,
2013-01-15 08:03:00,22.5,19.7,30.37,ENE,66,3.0,9.0,89,0.00,,,0.00,Wunderground v.1.15,2013-01-15 13:03:00,
2013-01-15 08:04:00,22.5,19.7,30.36,ENE,66,4.0,9.0,89,0.00,,,0.00,Wunderground v.1.15,2013-01-15 13:04:00,
2013-01-15 08:05:00,22.5,19.7,30.36,ENE,67,3.0,9.0,89,0.00,,,0.00,Wunderground v.1.15,2013-01-15 13:05:00,
2013-01-15 08:08:00,22.6,19.8,30.36,East,80,4.0,11.0,89,0.00,,,0.00,Wunderground v.1.15,2013-01-15 13:08:00,
2013-01-15 08:09:00,22.6,19.8,30.36,East,83,2.0,11.0,89,0.00,,,0.00,Wunderground v.1.15,2013-01-15 13:09:00,
2013-01-15 08:10:00,22.6,19.8,30.36,East,82,3.0,5.0,89,0.00,,,0.00,Wunderground v.1.15,2013-01-15 13:10:00,
2013-01-15 08:13:00,22.7,19.9,30.36,ENE,72,5.0,7.0,89,0.00,,,0.00,Wunderground v.1.15,2013-01-15 13:13:00,
2013-01-15 08:14:00,22.7,19.9,30.36,ENE,74,6.0,7.0,89,0.00,,,0.00,Wunderground v.1.15,2013-01-15 13:14:00,
2013-01-15 08:15:00,22.7,19.9,30.37,East,79,7.0,7.0,89,0.00,,,0.00,Wunderground v.1.15,2013-01-15 13:15:00,
2013-01-15 08:18:00,22.8,19.8,30.36,ENE,72,5.0,10.0,88,0.00,,,0.00,Wunderground v.1.15,2013-01-15 13:18:00,
2013-01-15 08:19:00,22.8,19.8,30.37,ENE,75,5.0,10.0,88,0.00,,,0.00,Wunderground v.1.15,2013-01-15 13:19:00,
2013-01-15 08:21:00,22.8,19.8,30.36,ENE,76,4.0,6.0,88,0.00,,,0.00,Wunderground v.1.15,2013-01-15 13:21:00,
2013-01-15 08:23:00,22.9,19.9,30.36,East,89,6.0,12.0,88,0.00,,,0.00,Wunderground v.1.15,2013-01-15 13:23:00,
2013-01-15 08:24:00,22.9,19.9,30.36,East,82,4.0,12.0,88,0.00,,,0.00,Wunderground v.1.15,2013-01-15 13:24:00,
2013-01-15 08:26:00,22.9,19.9,30.36,East,82,2.0,12.0,88,0.00,,,0.00,Wunderground v.1.15,2013-01-15 13:26:00,
2013-01-15 08:29:00,23.0,20.0,30.36,East,84,2.0,12.0,88,0.00,,,0.00,Wunderground v.1.15,2013-01-15 13:29:00,
2013-01-15 08:31:00,23.0,20.0,30.37,East,88,1.0,8.0,88,0.00,,,0.00,Wunderground v.1.15,2013-01-15 13:31:00,
2013-01-15 08:34:00,23.0,20.0,30.37,East,81,4.0,8.0,88,0.00,,,0.00,Wunderground v.1.15,2013-01-15 13:34:00,
2013-01-15 08:36:00,23.1,20.1,30.36,East,80,2.0,8.0,88,0.00,,,0.00,Wunderground v.1.15,2013-01-15 13:36:00,
2013-01-15 08:39:00,23.1,20.1,30.36,ENE,69,8.0,14.0,88,0.00,,,0.00,Wunderground v.1.15,2013-01-15 13:39:00,
2013-01-15 08:41:00,23.2,20.2,30.36,ENE,65,0.0,4.0,88,0.00,,,0.00,Wunderground v.1.15,2013-01-15 13:41:00,
2013-01-15 08:44:00,23.2,20.2,30.36,East,90,9.0,9.0,88,0.00,,,0.00,Wunderground v.1.15,2013-01-15 13:44:00,
2013-01-15 08:46:00,23.3,20.3,30.36,ENE,72,0.0,13.0,88,0.00,,,0.00,Wunderground v.1.15,2013-01-15 13:46:00,
2013-01-15 08:49:00,23.3,20.3,30.36,ENE,61,3.0,13.0,88,0.00,,,0.00,Wunderground v.1.15,2013-01-15 13:49:00,
2013-01-15 08:50:00,23.3,20.3,30.36,East,79,10.0,13.0,88,0.00,,,0.00,Wunderground v.1.15,2013-01-15 13:50:00,
2013-01-15 08:51:00,23.3,20.3,30.36,NE,55,2.0,10.0,88,0.00,,,0.00,Wunderground v.1.15,2013-01-15 13:51:00,
2013-01-15 08:54:00,23.3,20.3,30.36,ENE,78,5.0,13.0,88,0.00,,,0.00,Wunderground v.1.15,2013-01-15 13:54:00,
2013-01-15 08:55:00,23.3,20.3,30.36,ENE,78,3.0,13.0,88,0.00,,,0.00,Wunderground v.1.15,2013-01-15 13:55:00,
2013-01-15 08:56:00,23.4,20.4,30.36,ENE,61,3.0,13.0,88,0.00,,,0.00,Wunderground v.1.15,2013-01-15 13:56:00,
2013-01-15 08:59:00,23.4,20.4,30.36,ENE,69,3.0,13.0,88,0.00,,,0.00,Wunderground v.1.15,2013-01-15 13:59:00,
2013-01-15 09:00:00,23.4,20.4,30.36,East,97,8.0,13.0,88,0.00,,,0.00,Wunderground v.1.15,2013-01-15 14:00:00,
2013-01-15 09:01:00,23.4,20.4,30.36,ENE,64,2.0,8.0,88,0.00,,,0.00,Wunderground v.1.15,2013-01-15 14:01:00,
2013-01-15 09:04:00,23.4,20.4,30.36,ENE,64,0.0,8.0,88,0.00,,,0.00,Wunderground v.1.15,2013-01-15 14:04:00,
2013-01-15 09:05:00,23.5,20.5,30.36,ENE,63,2.0,8.0,88,0.00,,,0.00,Wunderground v.1.15,2013-01-15 14:05:00,
2013-01-15 09:07:00,23.5,20.5,30.36,ENE,74,0.0,8.0,88,0.00,,,0.00,Wunderground v.1.15,2013-01-15 14:07:00,
2013-01-15 09:09:00,23.5,20.5,30.36,ENE,77,4.0,11.0,88,0.00,,,0.00,Wunderground v.1.15,2013-01-15 14:09:00,
2013-01-15 09:10:00,23.5,20.5,30.36,ENE,77,1.0,3.0,88,0.00,,,0.00,Wunderground v.1.15,2013-01-15 14:10:00,
2013-01-15 09:12:00,23.5,20.5,30.37,ENE,78,0.0,3.0,88,0.00,,,0.00,Wunderground v.1.15,2013-01-15 14:12:00,
2013-01-15 09:14:00,23.6,20.6,30.36,East,84,4.0,10.0,88,0.00,,,0.00,Wunderground v.1.15,2013-01-15 14:14:00,
2013-01-15 09:15:00,23.6,20.6,30.37,East,86,2.0,10.0,88,0.00,,,0.00,Wunderground v.1.15,2013-01-15 14:15:00,
2013-01-15 09:17:00,23.6,20.6,30.36,East,93,1.0,10.0,88,0.00,,,0.00,Wunderground v.1.15,2013-01-15 14:17:00,
2013-01-15 09:19:00,23.6,20.6,30.36,East,82,2.0,10.0,88,0.00,,,0.00,Wunderground v.1.15,2013-01-15 14:19:00,
2013-01-15 09:20:00,23.7,20.7,30.36,East,82,0.0,3.0,88,0.00,,,0.00,Wunderground v.1.15,2013-01-15 14:20:00,
2013-01-15 09:21:00,23.7,20.7,30.36,East,82,2.0,3.0,88,0.00,,,0.00,Wunderground v.1.15,2013-01-15 14:21:00,
2013-01-15 09:22:00,23.7,20.7,30.36,East,84,9.0,11.0,88,0.00,,,0.00,Wunderground v.1.15,2013-01-15 14:22:00,
2013-01-15 09:24:00,23.7,20.7,30.36,East,80,3.0,11.0,88,0.00,,,0.00,Wunderground v.1.15,2013-01-15 14:24:00,
2013-01-15 09:26:00,23.8,20.8,30.36,East,80,4.0,11.0,88,0.00,,,0.00,Wunderground v.1.15,2013-01-15 14:26:00,
2013-01-15 09:27:00,23.8,20.8,30.37,ENE,78,0.0,11.0,88,0.00,,,0.00,Wunderground v.1.15,2013-01-15 14:27:00,
2013-01-15 09:30:00,23.8,20.8,30.37,East,79,2.0,11.0,88,0.00,,,0.00,Wunderground v.1.15,2013-01-15 14:30:00,
2013-01-15 09:31:00,23.8,20.8,30.37,ESE,113,3.0,12.0,88,0.00,,,0.00,Wunderground v.1.15,2013-01-15 14:31:00,
2013-01-15 09:32:00,23.8,20.8,30.37,East,95,3.0,12.0,88,0.00,,,0.00,Wunderground v.1.15,2013-01-15 14:32:00,
2013-01-15 09:35:00,23.8,20.8,30.37,East,91,2.0,12.0,88,0.00,,,0.00,Wunderground v.1.15,2013-01-15 14:35:00,
2013-01-15 09:36:00,23.8,20.8,30.37,East,89,3.0,12.0,88,0.00,,,0.00,Wunderground v.1.15,2013-01-15 14:36:00,
2013-01-15 09:37:00,23.9,20.9,30.38,East,88,1.0,12.0,88,0.00,,,0.00,Wunderground v.1.15,2013-01-15 14:37:00,
2013-01-15 09:40:00,23.9,20.9,30.38,ENE,78,3.0,5.0,88,0.00,,,0.00,Wunderground v.1.15,2013-01-15 14:40:00,
2013-01-15 09:41:00,23.9,20.9,30.38,ENE,78,3.0,5.0,88,0.00,,,0.00,Wunderground v.1.15,2013-01-15 14:41:00,
2013-01-15 09:42:00,23.9,20.9,30.38,ENE,77,3.0,6.0,88,0.00,,,0.00,Wunderground v.1.15,2013-01-15 14:42:00,
2013-01-15 09:45:00,23.9,20.9,30.38,ENE,78,1.0,6.0,88,0.00,,,0.00,Wunderground v.1.15,2013-01-15 14:45:00,
2013-01-15 09:46:00,24.0,21.0,30.38,ENE,77,9.0,10.0,88,0.00,,,0.00,Wunderground v.1.15,2013-01-15 14:46:00,
2013-01-15 09:47:00,24.0,21.0,30.38,East,81,6.0,10.0,88,0.00,,,0.00,Wunderground v.1.15,2013-01-15 14:47:00,
2013-01-15 09:50:00,24.1,21.1,30.38,East,89,7.0,7.0,88,0.00,,,0.00,Wunderground v.1.15,2013-01-15 14:50:00,
2013-01-15 09:51:00,24.1,20.8,30.38,East,82,5.0,9.0,87,0.00,,,0.00,Wunderground v.1.15,2013-01-15 14:51:00,
2013-01-15 09:52:00,24.1,21.1,30.38,East,81,1.0,9.0,88,0.00,,,0.00,Wunderground v.1.15,2013-01-15 14:52:00,
2013-01-15 09:53:00,24.1,21.1,30.39,East,81,3.0,9.0,88,0.00,,,0.00,Wunderground v.1.15,2013-01-15 14:53:00,
2013-01-15 09:56:00,24.2,20.9,30.39,ENE,66,4.0,9.0,87,0.00,,,0.00,Wunderground v.1.15,2013-01-15 14:56:00,
2013-01-15 09:58:00,24.3,21.0,30.39,East,80,7.0,9.0,87,0.00,,,0.00,Wunderground v.1.15,2013-01-15 14:58:00,
2013-01-15 10:01:00,24.4,21.1,30.38,East,90,5.0,6.0,87,0.00,,,0.00,Wunderground v.1.15,2013-01-15 15:01:00,
2013-01-15 10:03:00,24.5,21.2,30.38,ESE,102,9.0,10.0,87,0.00,,,0.00,Wunderground v.1.15,2013-01-15 15:03:00,
2013-01-15 10:06:00,24.6,21.3,30.38,East,88,2.0,10.0,87,0.00,,,0.00,Wunderground v.1.15,2013-01-15 15:06:00,
2013-01-15 10:08:00,24.6,21.3,30.38,East,81,2.0,10.0,87,0.00,,,0.00,Wunderground v.1.15,2013-01-15 15:08:00,
2013-01-15 10:11:00,24.8,21.5,30.38,East,90,3.0,6.0,87,0.00,,,0.00,Wunderground v.1.15,2013-01-15 15:11:00,
2013-01-15 10:13:00,24.8,21.5,30.38,East,85,18.0,18.0,87,0.00,,,0.00,Wunderground v.1.15,2013-01-15 15:13:00,
2013-01-15 10:16:00,24.9,21.6,30.38,East,88,6.0,19.0,87,0.00,,,0.00,Wunderground v.1.15,2013-01-15 15:16:00,
2013-01-15 10:18:00,24.9,21.6,30.38,ENE,69,6.0,19.0,87,0.00,,,0.00,Wunderground v.1.15,2013-01-15 15:18:00,
2013-01-15 10:21:00,25.0,21.7,30.38,East,100,13.0,14.0,87,0.00,,,0.00,Wunderground v.1.15,2013-01-15 15:21:00,
2013-01-15 10:22:00,25.0,21.7,30.38,East,97,12.0,14.0,87,0.00,,,0.00,Wunderground v.1.15,2013-01-15 15:22:00,
2013-01-15 10:23:00,25.0,21.4,30.38,East,87,7.0,14.0,86,0.00,,,0.00,Wunderground v.1.15,2013-01-15 15:23:00,
2013-01-15 10:27:00,25.0,21.7,30.38,East,94,9.0,14.0,87,0.00,,,0.00,Wunderground v.1.15,2013-01-15 15:27:00,
2013-01-15 10:28:00,25.1,21.8,30.38,East,93,2.0,14.0,87,0.00,,,0.00,Wunderground v.1.15,2013-01-15 15:28:00,
2013-01-15 10:29:00,25.1,21.8,30.38,East,93,2.0,14.0,87,0.00,,,0.00,Wunderground v.1.15,2013-01-15 15:29:00,
2013-01-15 10:32:00,25.2,21.9,30.38,East,94,4.0,11.0,87,0.00,,,0.00,Wunderground v.1.15,2013-01-15 15:32:00,
2013-01-15 10:33:00,25.3,22.0,30.37,East,94,6.0,11.0,87,0.00,,,0.00,Wunderground v.1.15,2013-01-15 15:33:00,
2013-01-15 10:34:00,25.3,22.0,30.37,East,93,4.0,11.0,87,0.00,,,0.00,Wunderground v.1.15,2013-01-15 15:34:00,
2013-01-15 10:37:00,25.3,21.7,30.37,East,87,1.0,11.0,86,0.00,,,0.00,Wunderground v.1.15,2013-01-15 15:37:00,
2013-01-15 10:39:00,25.3,21.7,30.37,East,88,7.0,12.0,86,0.00,,,0.00,Wunderground v.1.15,2013-01-15 15:39:00,
2013-01-15 10:42:00,25.4,21.8,30.37,ENE,76,2.0,9.0,86,0.00,,,0.00,Wunderground v.1.15,2013-01-15 15:42:00,
2013-01-15 10:44:00,25.5,21.9,30.37,East,85,5.0,9.0,86,0.00,,,0.00,Wunderground v.1.15,2013-01-15 15:44:00,
2013-01-15 10:47:00,25.6,22.0,30.36,East,97,10.0,15.0,86,0.00,,,0.00,Wunderground v.1.15,2013-01-15 15:47:00,
2013-01-15 10:49:00,25.6,22.0,30.36,East,101,6.0,15.0,86,0.00,,,0.00,Wunderground v.1.15,2013-01-15 15:49:00,
2013-01-15 10:52:00,25.7,22.1,30.36,NE,54,4.0,13.0,86,0.00,,,0.00,Wunderground v.1.15,2013-01-15 15:52:00,
2013-01-15 10:54:00,25.8,22.2,30.36,East,89,2.0,13.0,86,0.00,,,0.00,Wunderground v.1.15,2013-01-15 15:54:00,
2013-01-15 10:57:00,25.9,22.3,30.36,East,84,10.0,13.0,86,0.00,,,0.00,Wunderground v.1.15,2013-01-15 15:57:00,
2013-01-15 10:59:00,26.0,22.4,30.36,ENE,65,1.0,13.0,86,0.00,,,0.00,Wunderground v.1.15,2013-01-15 15:59:00,
2013-01-15 11:02:00,26.1,22.5,30.35,East,94,3.0,11.0,86,0.00,,,0.00,Wunderground v.1.15,2013-01-15 16:02:00,
2013-01-15 11:03:00,26.1,22.5,30.35,East,84,6.0,11.0,86,0.00,,,0.00,Wunderground v.1.15,2013-01-15 16:03:00,
2013-01-15 11:04:00,26.2,22.6,30.35,ESE,103,3.0,11.0,86,0.00,,,0.00,Wunderground v.1.15,2013-01-15 16:04:00,
2013-01-15 11:07:00,26.3,22.7,30.34,East,99,8.0,11.0,86,0.00,,,0.00,Wunderground v.1.15,2013-01-15 16:07:00,
2013-01-15 11:08:00,26.3,22.7,30.34,East,93,10.0,11.0,86,0.00,,,0.00,Wunderground v.1.15,2013-01-15 16:08:00,
2013-01-15 11:09:00,26.3,22.7,30.34,East,82,3.0,14.0,86,0.00,,,0.00,Wunderground v.1.15,2013-01-15 16:09:00,
2013-01-15 11:12:00,26.4,22.8,30.34,East,90,12.0,16.0,86,0.00,,,0.00,Wunderground v.1.15,2013-01-15 16:12:00,
2013-01-15 11:13:00,26.4,22.8,30.34,East,92,7.0,16.0,86,0.00,,,0.00,Wunderground v.1.15,2013-01-15 16:13:00,
2013-01-15 11:14:00,26.4,22.5,30.34,East,90,3.0,16.0,85,0.00,,,0.00,Wunderground v.1.15,2013-01-15 16:14:00,
2013-01-15 11:17:00,26.4,22.8,30.34,ENE,70,4.0,16.0,86,0.00,,,0.00,Wunderground v.1.15,2013-01-15 16:17:00,
2013-01-15 11:18:00,26.4,22.5,30.34,ENE,77,3.0,16.0,85,0.00,,,0.00,Wunderground v.1.15,2013-01-15 16:18:00,
2013-01-15 11:19:00,26.5,22.9,30.34,NE,53,10.0,16.0,86,0.00,,,0.00,Wunderground v.1.15,2013-01-15 16:19:00,
2013-01-15 11:20:00,26.5,22.9,30.34,NE,53,11.0,16.0,86,0.00,,,0.00,Wunderground v.1.15,2013-01-15 16:20:00,
2013-01-15 11:22:00,26.5,22.6,30.34,ENE,64,6.0,14.0,85,0.00,,,0.00,Wunderground v.1.15,2013-01-15 16:22:00,
2013-01-15 11:23:00,26.5,22.6,30.34,East,89,9.0,14.0,85,0.00,,,0.00,Wunderground v.1.15,2013-01-15 16:23:00,
2013-01-15 11:25:00,26.5,22.6,30.34,East,84,5.0,14.0,85,0.00,,,0.00,Wunderground v.1.15,2013-01-15 16:25:00,
2013-01-15 11:28:00,26.5,22.6,30.34,East,97,5.0,14.0,85,0.00,,,0.00,Wunderground v.1.15,2013-01-15 16:28:00,
2013-01-15 11:29:00,26.6,22.7,30.34,East,83,0.0,14.0,85,0.00,,,0.00,Wunderground v.1.15,2013-01-15 16:29:00,
2013-01-15 11:30:00,26.6,22.7,30.34,East,83,0.0,7.0,85,0.00,,,0.00,Wunderground v.1.15,2013-01-15 16:30:00,
2013-01-15 11:33:00,26.7,22.8,30.34,East,90,10.0,10.0,85,0.00,,,0.00,Wunderground v.1.15,2013-01-15 16:33:00,
2013-01-15 11:35:00,26.7,22.8,30.34,ENE,58,5.0,10.0,85,0.00,,,0.00,Wunderground v.1.15,2013-01-15 16:35:00,
2013-01-15 11:38:00,26.8,22.9,30.34,East,93,13.0,15.0,85,0.00,,,0.00,Wunderground v.1.15,2013-01-15 16:38:00,
2013-01-15 11:40:00,26.9,23.0,30.33,East,94,6.0,6.0,85,0.00,,,0.00,Wunderground v.1.15,2013-01-15 16:40:00,
2013-01-15 11:43:00,26.9,23.0,30.33,East,86,3.0,11.0,85,0.00,,,0.00,Wunderground v.1.15,2013-01-15 16:43:00,
2013-01-15 11:45:00,27.0,23.1,30.33,East,92,1.0,11.0,85,0.00,,,0.00,Wunderground v.1.15,2013-01-15 16:45:00,
2013-01-15 11:48:00,27.1,23.2,30.32,East,97,9.0,12.0,85,0.00,,,0.00,Wunderground v.1.15,2013-01-15 16:48:00,
2013-01-15 11:50:00,27.1,23.2,30.32,East,94,1.0,6.0,85,0.00,,,0.00,Wunderground v.1.15,2013-01-15 16:50:00,
2013-01-15 11:53:00,27.2,23.3,30.32,ENE,75,4.0,10.0,85,0.00,,,0.00,Wunderground v.1.15,2013-01-15 16:53:00,
2013-01-15 11:54:00,27.3,23.4,30.32,ENE,74,3.0,10.0,85,0.00,,,0.00,Wunderground v.1.15,2013-01-15 16:54:00,
2013-01-15 11:55:00,27.3,23.4,30.32,ENE,74,0.0,10.0,85,0.00,,,0.00,Wunderground v.1.15,2013-01-15 16:55:00,
2013-01-15 11:58:00,27.5,23.3,30.32,East,82,5.0,11.0,84,0.00,,,0.00,Wunderground v.1.15,2013-01-15 16:58:00,
2013-01-15 11:59:00,27.5,23.3,30.32,East,82,1.0,11.0,84,0.00,,,0.00,Wunderground v.1.15,2013-01-15 16:59:00,
2013-01-15 12:00:00,27.5,23.3,30.32,East,83,3.0,5.0,84,0.00,,,0.00,Wunderground v.1.15,2013-01-15 17:00:00,
2013-01-15 12:04:00,27.6,23.4,30.32,East,86,3.0,13.0,84,0.00,,,0.00,Wunderground v.1.15,2013-01-15 17:04:00,
2013-01-15 12:05:00,27.7,23.5,30.32,East,87,2.0,13.0,84,0.00,,,0.00,Wunderground v.1.15,2013-01-15 17:05:00,
2013-01-15 12:09:00,27.8,23.6,30.32,ESE,103,7.0,13.0,84,0.00,,,0.00,Wunderground v.1.15,2013-01-15 17:09:00,
2013-01-15 12:10:00,27.8,23.6,30.32,ESE,118,5.0,7.0,84,0.00,,,0.00,Wunderground v.1.15,2013-01-15 17:10:00,
2013-01-15 12:14:00,27.9,23.4,30.31,East,92,5.0,11.0,83,0.00,,,0.00,Wunderground v.1.15,2013-01-15 17:14:00,
2013-01-15 12:15:00,27.9,23.4,30.31,East,93,4.0,11.0,83,0.00,,,0.00,Wunderground v.1.15,2013-01-15 17:15:00,
2013-01-15 12:16:00,27.9,23.4,30.31,East,93,4.0,11.0,83,0.00,,,0.00,Wunderground v.1.15,2013-01-15 17:16:00,
2013-01-15 12:19:00,28.0,23.5,30.31,ESE,105,12.0,12.0,83,0.00,,,0.00,Wunderground v.1.15,2013-01-15 17:19:00,
2013-01-15 12:20:00,28.0,23.5,30.31,East,82,3.0,13.0,83,0.00,,,0.00,Wunderground v.1.15,2013-01-15 17:20:00,
2013-01-15 12:21:00,28.0,23.5,30.30,East,82,3.0,13.0,83,0.00,,,0.00,Wunderground v.1.15,2013-01-15 17:21:00,
2013-01-15 12:24:00,28.0,23.5,30.30,East,81,7.0,13.0,83,0.00,,,0.00,Wunderground v.1.15,2013-01-15 17:24:00,
2013-01-15 12:25:00,28.0,23.5,30.31,NE,55,4.0,13.0,83,0.00,,,0.00,Wunderground v.1.15,2013-01-15 17:25:00,
2013-01-15 12:26:00,28.0,23.5,30.30,East,86,10.0,13.0,83,0.00,,,0.00,Wunderground v.1.15,2013-01-15 17:26:00,
2013-01-15 12:29:00,28.0,23.5,30.31,East,80,3.0,13.0,83,0.00,,,0.00,Wunderground v.1.15,2013-01-15 17:29:00,
2013-01-15 12:30:00,28.0,23.5,30.31,East,80,2.0,5.0,83,0.00,,,0.00,Wunderground v.1.15,2013-01-15 17:30:00,
2013-01-15 12:31:00,28.1,23.6,30.31,ENE,77,4.0,10.0,83,0.00,,,0.00,Wunderground v.1.15,2013-01-15 17:31:00,
2013-01-15 12:34:00,28.1,23.9,30.30,ENE,63,6.0,10.0,84,0.00,,,0.00,Wunderground v.1.15,2013-01-15 17:34:00,
2013-01-15 12:35:00,28.2,24.0,30.30,ENE,63,2.0,10.0,84,0.00,,,0.00,Wunderground v.1.15,2013-01-15 17:35:00,
2013-01-15 12:36:00,28.2,24.0,30.30,ENE,62,0.0,10.0,84,0.00,,,0.00,Wunderground v.1.15,2013-01-15 17:36:00,
2013-01-15 12:37:00,28.3,24.1,30.30,ENE,63,1.0,10.0,84,0.00,,,0.00,Wunderground v.1.15,2013-01-15 17:37:00,
2013-01-15 12:39:00,28.4,23.9,30.30,ENE,62,3.0,10.0,83,0.00,,,0.00,Wunderground v.1.15,2013-01-15 17:39:00,
2013-01-15 12:40:00,28.5,24.0,30.29,ENE,62,1.0,5.0,83,0.00,,,0.00,Wunderground v.1.15,2013-01-15 17:40:00,
2013-01-15 12:41:00,28.5,24.0,30.29,ENE,62,4.0,5.0,83,0.00,,,0.00,Wunderground v.1.15,2013-01-15 17:41:00,
2013-01-15 12:42:00,28.6,24.4,30.29,ENE,62,2.0,5.0,84,0.00,,,0.00,Wunderground v.1.15,2013-01-15 17:42:00,
2013-01-15 12:44:00,28.8,24.6,30.28,ENE,72,2.0,7.0,84,0.00,,,0.00,Wunderground v.1.15,2013-01-15 17:44:00,
2013-01-15 12:45:00,28.9,24.4,30.28,ENE,72,5.0,7.0,83,0.00,,,0.00,Wunderground v.1.15,2013-01-15 17:45:00,
2013-01-15 12:46:00,28.9,24.4,30.28,ENE,72,3.0,7.0,83,0.00,,,0.00,Wunderground v.1.15,2013-01-15 17:46:00,
2013-01-15 12:47:00,29.0,24.5,30.28,East,82,9.0,10.0,83,0.00,,,0.00,Wunderground v.1.15,2013-01-15 17:47:00,
2013-01-15 12:49:00,29.0,24.2,30.28,ENE,78,5.0,11.0,82,0.00,,,0.00,Wunderground v.1.15,2013-01-15 17:49:00,
2013-01-15 12:50:00,29.0,24.2,30.28,ENE,78,5.0,9.0,82,0.00,,,0.00,Wunderground v.1.15,2013-01-15 17:50:00,
2013-01-15 12:51:00,29.0,24.2,30.28,ENE,77,2.0,9.0,82,0.00,,,0.00,Wunderground v.1.15,2013-01-15 17:51:00,
2013-01-15 12:52:00,29.0,24.2,30.28,ENE,72,11.0,12.0,82,0.00,,,0.00,Wunderground v.1.15,2013-01-15 17:52:00,
2013-01-15 12:54:00,29.1,24.3,30.28,East,90,5.0,13.0,82,0.00,,,0.00,Wunderground v.1.15,2013-01-15 17:54:00,
2013-01-15 12:55:00,29.1,24.3,30.28,East,90,4.0,13.0,82,0.00,,,0.00,Wunderground v.1.15,2013-01-15 17:55:00,
2013-01-15 12:56:00,29.2,24.4,30.27,East,90,2.0,13.0,82,0.00,,,0.00,Wunderground v.1.15,2013-01-15 17:56:00,
2013-01-15 12:57:00,29.2,24.4,30.27,East,90,4.0,13.0,82,0.00,,,0.00,Wunderground v.1.15,2013-01-15 17:57:00,
2013-01-15 13:00:00,29.4,24.6,30.27,East,90,3.0,13.0,82,0.00,,,0.00,Wunderground v.1.15,2013-01-15 18:00:00,
2013-01-15 13:01:00,29.6,24.8,30.26,ENE,65,7.0,7.0,82,0.00,,,0.00,Wunderground v.1.15,2013-01-15 18:01:00,
2013-01-15 13:02:00,29.6,25.1,30.26,ENE,74,3.0,9.0,83,0.00,,,0.00,Wunderground v.1.15,2013-01-15 18:02:00,
2013-01-15 13:05:00,29.9,25.4,30.26,ENE,74,2.0,9.0,83,0.00,,,0.00,Wunderground v.1.15,2013-01-15 18:05:00,
2013-01-15 13:06:00,30.0,25.5,30.26,East,88,9.0,10.0,83,0.00,,,0.00,Wunderground v.1.15,2013-01-15 18:06:00,
2013-01-15 13:08:00,30.1,25.3,30.26,ENE,58,6.0,11.0,82,0.00,,,0.00,Wunderground v.1.15,2013-01-15 18:08:00,
2013-01-15 13:10:00,30.3,25.5,30.26,ENE,66,4.0,6.0,82,0.00,,,0.00,Wunderground v.1.15,2013-01-15 18:10:00,
2013-01-15 13:11:00,30.3,25.5,30.26,ENE,66,3.0,6.0,82,0.00,,,0.00,Wunderground v.1.15,2013-01-15 18:11:00,
2013-01-15 13:12:00,30.4,25.6,30.26,ENE,67,1.0,6.0,82,0.00,,,0.00,Wunderground v.1.15,2013-01-15 18:12:00,
2013-01-15 13:15:00,30.5,25.1,30.26,ENE,63,5.0,12.0,80,0.00,,,0.00,Wunderground v.1.15,2013-01-15 18:15:00,
2013-01-15 13:16:00,30.5,25.1,30.26,East,101,3.0,12.0,80,0.00,,,0.00,Wunderground v.1.15,2013-01-15 18:16:00,
2013-01-15 13:17:00,30.6,25.2,30.26,East,90,7.0,12.0,80,0.00,,,0.00,Wunderground v.1.15,2013-01-15 18:17:00,
2013-01-15 13:18:00,30.6,25.2,30.26,ENE,73,9.0,13.0,80,0.00,,,0.00,Wunderground v.1.15,2013-01-15 18:18:00,
2013-01-15 13:20:00,30.5,24.8,30.25,East,81,2.0,6.0,79,0.00,,,0.00,Wunderground v.1.15,2013-01-15 18:20:00,
2013-01-15 13:21:00,30.5,25.1,30.25,ENE,67,9.0,9.0,80,0.00,,,0.00,Wunderground v.1.15,2013-01-15 18:21:00,
2013-01-15 13:22:00,30.5,25.1,30.25,East,82,4.0,12.0,80,0.00,,,0.00,Wunderground v.1.15,2013-01-15 18:22:00,
2013-01-15 13:23:00,30.5,24.8,30.25,East,81,7.0,12.0,79,0.00,,,0.00,Wunderground v.1.15,2013-01-15 18:23:00,
2013-01-15 13:25:00,30.6,25.2,30.25,ENE,69,2.0,12.0,80,0.00,,,0.00,Wunderground v.1.15,2013-01-15 18:25:00,
2013-01-15 13:26:00,30.6,25.2,30.25,ENE,65,5.0,12.0,80,0.00,,,0.00,Wunderground v.1.15,2013-01-15 18:26:00,
2013-01-15 13:27:00,30.6,25.2,30.25,East,84,9.0,12.0,80,0.00,,,0.00,Wunderground v.1.15,2013-01-15 18:27:00,
2013-01-15 13:28:00,30.6,25.2,30.25,ENE,59,7.0,12.0,80,0.00,,,0.00,Wunderground v.1.15,2013-01-15 18:28:00,
2013-01-15 13:30:00,30.6,24.9,30.25,ENE,70,1.0,5.0,79,0.00,,,0.00,Wunderground v.1.15,2013-01-15 18:30:00,
2013-01-15 13:31:00,30.6,25.2,30.24,ENE,59,7.0,10.0,80,0.00,,,0.00,Wunderground v.1.15,2013-01-15 18:31:00,
2013-01-15 13:32:00,30.6,24.9,30.24,ENE,60,6.0,10.0,79,0.00,,,0.00,Wunderground v.1.15,2013-01-15 18:32:00,
2013-01-15 13:33:00,30.6,24.9,30.24,ENE,61,5.0,10.0,79,0.00,,,0.00,Wunderground v.1.15,2013-01-15 18:33:00,
2013-01-15 13:35:00,30.6,25.2,30.24,NE,54,0.0,10.0,80,0.00,,,0.00,Wunderground v.1.15,2013-01-15 18:35:00,
2013-01-15 13:36:00,30.7,25.3,30.24,NE,54,2.0,10.0,80,0.00,,,0.00,Wunderground v.1.15,2013-01-15 18:36:00,
2013-01-15 13:38:00,30.8,25.4,30.24,East,81,6.0,10.0,80,0.00,,,0.00,Wunderground v.1.15,2013-01-15 18:38:00,
2013-01-15 13:40:00,31.0,25.6,30.24,ENE,72,9.0,11.0,80,0.00,,,0.00,Wunderground v.1.15,2013-01-15 18:40:00,
2013-01-15 13:41:00,31.0,25.6,30.24,NE,46,5.0,11.0,80,0.00,,,0.00,Wunderground v.1.15,2013-01-15 18:41:00,
2013-01-15 13:43:00,31.1,25.3,30.24,NE,46,0.0,11.0,79,0.00,,,0.00,Wunderground v.1.15,2013-01-15 18:43:00,
2013-01-15 13:46:00,31.1,25.0,30.24,ENE,77,7.0,13.0,78,0.00,,,0.00,Wunderground v.1.15,2013-01-15 18:46:00,
2013-01-15 13:47:00,31.1,25.0,30.24,ENE,78,2.0,13.0,78,0.00,,,0.00,Wunderground v.1.15,2013-01-15 18:47:00,
2013-01-15 13:48:00,31.0,24.9,30.24,East,79,3.0,13.0,78,0.00,,,0.00,Wunderground v.1.15,2013-01-15 18:48:00,
2013-01-15 13:51:00,31.1,25.3,30.25,ENE,77,2.0,5.0,79,0.00,,,0.00,Wunderground v.1.15,2013-01-15 18:51:00,
2013-01-15 13:52:00,31.1,25.0,30.25,ENE,77,2.0,5.0,78,0.00,,,0.00,Wunderground v.1.15,2013-01-15 18:52:00,
2013-01-15 13:53:00,31.1,25.3,30.25,ENE,78,5.0,7.0,79,0.00,,,0.00,Wunderground v.1.15,2013-01-15 18:53:00,
2013-01-15 13:56:00,31.2,25.1,30.24,East,81,3.0,7.0,78,0.00,,,0.00,Wunderground v.1.15,2013-01-15 18:56:00,
2013-01-15 13:57:00,31.2,25.1,30.24,East,80,2.0,7.0,78,0.00,,,0.00,Wunderground v.1.15,2013-01-15 18:57:00,
2013-01-15 13:58:00,31.2,25.1,30.24,East,84,1.0,13.0,78,0.00,,,0.00,Wunderground v.1.15,2013-01-15 18:58:00,
2013-01-15 13:59:00,31.2,25.1,30.24,East,84,4.0,13.0,78,0.00,,,0.00,Wunderground v.1.15,2013-01-15 18:59:00,
2013-01-15 14:01:00,31.2,25.1,30.24,East,90,9.0,9.0,78,0.00,,,0.00,Wunderground v.1.15,2013-01-15 19:01:00,
2013-01-15 14:02:00,31.1,25.0,30.24,East,84,2.0,9.0,78,0.00,,,0.00,Wunderground v.1.15,2013-01-15 19:02:00,
2013-01-15 14:03:00,31.1,25.0,30.24,East,84,0.0,9.0,78,0.00,,,0.00,Wunderground v.1.15,2013-01-15 19:03:00,
2013-01-15 14:04:00,31.1,25.0,30.24,East,84,3.0,9.0,78,0.00,,,0.00,Wunderground v.1.15,2013-01-15 19:04:00,
2013-01-15 14:06:00,31.1,25.0,30.24,East,84,2.0,9.0,78,0.00,,,0.00,Wunderground v.1.15,2013-01-15 19:06:00,
2013-01-15 14:07:00,31.2,25.4,30.24,ENE,57,5.0,9.0,79,0.00,,,0.00,Wunderground v.1.15,2013-01-15 19:07:00,
2013-01-15 14:08:00,31.2,25.4,30.23,ENE,57,3.0,9.0,79,0.00,,,0.00,Wunderground v.1.15,2013-01-15 19:08:00,
2013-01-15 14:09:00,31.2,25.4,30.23,ENE,57,4.0,9.0,79,0.00,,,0.00,Wunderground v.1.15,2013-01-15 19:09:00,
2013-01-15 14:11:00,31.1,25.3,30.22,ENE,58,2.0,6.0,79,0.00,,,0.00,Wunderground v.1.15,2013-01-15 19:11:00,
2013-01-15 14:12:00,31.1,25.3,30.22,NE,49,5.0,7.0,79,0.00,,,0.00,Wunderground v.1.15,2013-01-15 19:12:00,
2013-01-15 14:13:00,31.1,25.3,30.22,NE,47,2.0,7.0,79,0.00,,,0.00,Wunderground v.1.15,2013-01-15 19:13:00,
2013-01-15 14:14:00,31.1,25.0,30.21,NE,47,2.0,7.0,78,0.00,,,0.00,Wunderground v.1.15,2013-01-15 19:14:00,
2013-01-15 14:17:00,31.1,25.3,30.20,ENE,65,16.0,16.0,79,0.00,,,0.00,Wunderground v.1.15,2013-01-15 19:17:00,
2013-01-15 14:18:00,31.0,24.9,30.20,NNE,23,3.0,16.0,78,0.00,,,0.00,Wunderground v.1.15,2013-01-15 19:18:00,
2013-01-15 14:19:00,30.9,24.8,30.21,ENE,66,6.0,16.0,78,0.00,,,0.00,Wunderground v.1.15,2013-01-15 19:19:00,
2013-01-15 14:22:00,30.8,24.7,30.21,ENE,76,7.0,11.0,78,0.00,,,0.00,Wunderground v.1.15,2013-01-15 19:22:00,
2013-01-15 14:23:00,30.8,24.7,30.21,ENE,78,3.0,11.0,78,0.00,,,0.00,Wunderground v.1.15,2013-01-15 19:23:00,
2013-01-15 14:24:00,30.8,24.7,30.21,East,81,4.0,11.0,78,0.00,,,0.00,Wunderground v.1.15,2013-01-15 19:24:00,
2013-01-15 14:27:00,30.7,25.0,30.21,East,97,7.0,13.0,79,0.00,,,0.00,Wunderground v.1.15,2013-01-15 19:27:00,
2013-01-15 14:28:00,30.6,24.9,30.20,East,92,3.0,13.0,79,0.00,,,0.00,Wunderground v.1.15,2013-01-15 19:28:00,
2013-01-15 14:29:00,30.6,24.9,30.20,East,101,7.0,13.0,79,0.00,,,0.00,Wunderground v.1.15,2013-01-15 19:29:00,
2013-01-15 14:32:00,30.6,24.6,30.20,East,85,3.0,12.0,78,0.00,,,0.00,Wunderground v.1.15,2013-01-15 19:32:00,
2013-01-15 14:33:00,30.6,24.9,30.21,East,80,3.0,12.0,79,0.00,,,0.00,Wunderground v.1.15,2013-01-15 19:33:00,
2013-01-15 14:34:00,30.6,24.9,30.21,East,88,4.0,12.0,79,0.00,,,0.00,Wunderground v.1.15,2013-01-15 19:34:00,
2013-01-15 14:37:00,30.5,24.8,30.23,East,81,6.0,12.0,79,0.00,,,0.00,Wunderground v.1.15,2013-01-15 19:37:00,
2013-01-15 14:38:00,30.5,24.8,30.24,East,84,2.0,12.0,79,0.00,,,0.00,Wunderground v.1.15,2013-01-15 19:38:00,
2013-01-15 14:39:00,30.5,24.8,30.24,ENE,72,4.0,12.0,79,0.00,,,0.00,Wunderground v.1.15,2013-01-15 19:39:00,
2013-01-15 14:43:00,30.5,25.1,30.25,NNE,18,3.0,9.0,80,0.00,,,0.00,Wunderground v.1.15,2013-01-15 19:43:00,
2013-01-15 14:44:00,30.6,24.9,30.25,NNE,26,6.0,9.0,79,0.00,,,0.00,Wunderground v.1.15,2013-01-15 19:44:00,
2013-01-15 14:48:00,30.6,25.2,30.26,North,357,3.0,9.0,80,0.00,,,0.00,Wunderground v.1.15,2013-01-15 19:48:00,
2013-01-15 14:49:00,30.6,25.2,30.27,North,352,4.0,9.0,80,0.00,,,0.00,Wunderground v.1.15,2013-01-15 19:49:00,
2013-01-15 14:50:00,30.6,25.2,30.28,NNE,15,4.0,4.0,80,0.00,,,0.00,Wunderground v.1.15,2013-01-15 19:50:00,
2013-01-15 14:53:00,30.6,25.2,30.30,NNW,334,6.0,7.0,80,0.00,,,0.00,Wunderground v.1.15,2013-01-15 19:53:00,
2013-01-15 14:54:00,30.6,25.2,30.29,NNW,332,4.0,9.0,80,0.00,,,0.00,Wunderground v.1.15,2013-01-15 19:54:00,
2013-01-15 14:55:00,30.6,24.9,30.30,NNW,342,6.0,9.0,79,0.00,,,0.00,Wunderground v.1.15,2013-01-15 19:55:00,
2013-01-15 14:58:00,30.5,24.8,30.30,North,357,3.0,11.0,79,0.00,,,0.00,Wunderground v.1.15,2013-01-15 19:58:00,
2013-01-15 14:59:00,30.6,24.9,30.29,North,357,4.0,11.0,79,0.00,,,0.00,Wunderground v.1.15,2013-01-15 19:59:00,
2013-01-15 15:00:00,30.6,24.9,30.28,North,9,1.0,6.0,79,0.00,,,0.00,Wunderground v.1.15,2013-01-15 20:00:00,
2013-01-15 15:03:00,30.6,24.9,30.28,North,7,4.0,6.0,79,0.00,,,0.00,Wunderground v.1.15,2013-01-15 20:03:00,
2013-01-15 15:04:00,30.6,24.9,30.28,North,5,4.0,7.0,79,0.00,,,0.00,Wunderground v.1.15,2013-01-15 20:04:00,
2013-01-15 15:05:00,30.6,24.9,30.27,North,5,5.0,10.0,79,0.00,,,0.00,Wunderground v.1.15,2013-01-15 20:05:00,
2013-01-15 15:08:00,30.6,24.9,30.28,North,5,0.0,10.0,79,0.00,,,0.00,Wunderground v.1.15,2013-01-15 20:08:00,
2013-01-15 15:09:00,30.6,24.9,30.27,North,5,2.0,10.0,79,0.00,,,0.00,Wunderground v.1.15,2013-01-15 20:09:00,
2013-01-15 15:11:00,30.7,25.3,30.27,North,8,2.0,9.0,80,0.00,,,0.00,Wunderground v.1.15,2013-01-15 20:11:00,
2013-01-15 15:13:00,30.7,25.0,30.27,NNE,28,3.0,9.0,79,0.00,,,0.00,Wunderground v.1.15,2013-01-15 20:13:00,
2013-01-15 15:14:00,30.7,25.0,30.27,NNE,28,3.0,9.0,79,0.00,,,0.00,Wunderground v.1.15,2013-01-15 20:14:00,
2013-01-15 15:16:00,30.8,25.1,30.26,NNE,30,1.0,9.0,79,0.00,,,0.00,Wunderground v.1.15,2013-01-15 20:16:00,
2013-01-15 15:18:00,30.8,25.1,30.26,NNE,23,3.0,9.0,79,0.00,,,0.00,Wunderground v.1.15,2013-01-15 20:18:00,
2013-01-15 15:19:00,30.8,25.1,30.26,NNE,23,1.0,9.0,79,0.00,,,0.00,Wunderground v.1.15,2013-01-15 20:19:00,
2013-01-15 15:20:00,30.8,25.1,30.26,NNE,23,0.0,9.0,79,0.00,,,0.00,Wunderground v.1.15,2013-01-15 20:20:00,
2013-01-15 15:21:00,30.8,25.1,30.26,NNE,23,4.0,5.0,79,0.00,,,0.00,Wunderground v.1.15,2013-01-15 20:21:00,
2013-01-15 15:23:00,30.8,25.1,30.26,NNE,23,3.0,5.0,79,0.00,,,0.00,Wunderground v.1.15,2013-01-15 20:23:00,
2013-01-15 15:24:00,30.8,25.1,30.26,NNE,25,3.0,5.0,79,0.00,,,0.00,Wunderground v.1.15,2013-01-15 20:24:00,
2013-01-15 15:25:00,30.8,25.1,30.26,NNE,26,3.0,5.0,79,0.00,,,0.00,Wunderground v.1.15,2013-01-15 20:25:00,
2013-01-15 15:27:00,30.8,25.1,30.26,NNE,32,3.0,6.0,79,0.00,,,0.00,Wunderground v.1.15,2013-01-15 20:27:00,
2013-01-15 15:28:00,30.8,25.1,30.26,NNE,13,2.0,7.0,79,0.00,,,0.00,Wunderground v.1.15,2013-01-15 20:28:00,
2013-01-15 15:29:00,30.7,25.0,30.26,NNE,12,1.0,7.0,79,0.00,,,0.00,Wunderground v.1.15,2013-01-15 20:29:00,
2013-01-15 15:31:00,30.7,25.0,30.27,NNE,13,0.0,2.0,79,0.00,,,0.00,Wunderground v.1.15,2013-01-15 20:31:00,
2013-01-15 15:32:00,30.7,25.0,30.27,NNE,12,0.0,2.0,79,0.00,,,0.00,Wunderground v.1.15,2013-01-15 20:32:00,
2013-01-15 15:33:00,30.7,25.0,30.26,NNE,13,0.0,2.0,79,0.00,,,0.00,Wunderground v.1.15,2013-01-15 20:33:00,
2013-01-15 15:34:00,30.7,25.0,30.26,NNE,17,4.0,5.0,79,0.00,,,0.00,Wunderground v.1.15,2013-01-15 20:34:00,
2013-01-15 15:36:00,30.7,25.0,30.25,NNE,28,2.0,5.0,79,0.00,,,0.00,Wunderground v.1.15,2013-01-15 20:36:00,
2013-01-15 15:37:00,30.7,25.0,30.25,NNE,27,2.0,5.0,79,0.00,,,0.00,Wunderground v.1.15,2013-01-15 20:37:00,
2013-01-15 15:39:00,30.7,25.0,30.25,NNE,28,0.0,5.0,79,0.00,,,0.00,Wunderground v.1.15,2013-01-15 20:39:00,
2013-01-15 15:41:00,30.7,25.0,30.25,NNE,28,2.0,4.0,79,0.00,,,0.00,Wunderground v.1.15,2013-01-15 20:41:00,
2013-01-15 15:43:00,30.7,24.7,30.26,NNE,26,1.0,5.0,78,0.00,,,0.00,Wunderground v.1.15,2013-01-15 20:43:00,
2013-01-15 15:44:00,30.7,24.7,30.27,NNE,26,2.0,5.0,78,0.00,,,0.00,Wunderground v.1.15,2013-01-15 20:44:00,
2013-01-15 15:45:00,30.7,24.7,30.27,NNE,26,1.0,5.0,78,0.00,,,0.00,Wunderground v.1.15,2013-01-15 20:45:00,
2013-01-15 15:46:00,30.7,24.7,30.27,North,3,3.0,6.0,78,0.00,,,0.00,Wunderground v.1.15,2013-01-15 20:46:00,
2013-01-15 15:48:00,30.7,24.7,30.27,North,2,5.0,6.0,78,0.00,,,0.00,Wunderground v.1.15,2013-01-15 20:48:00,
2013-01-15 15:50:00,30.7,25.0,30.27,North,11,2.0,8.0,79,0.00,,,0.00,Wunderground v.1.15,2013-01-15 20:50:00,
2013-01-15 15:51:00,30.7,25.0,30.26,NNE,18,5.0,6.0,79,0.00,,,0.00,Wunderground v.1.15,2013-01-15 20:51:00,
2013-01-15 15:53:00,30.7,25.0,30.26,NNE,16,2.0,6.0,79,0.00,,,0.00,Wunderground v.1.15,2013-01-15 20:53:00,
2013-01-15 15:55:00,30.7,25.0,30.26,NNE,16,0.0,6.0,79,0.00,,,0.00,Wunderground v.1.15,2013-01-15 20:55:00,
2013-01-15 15:56:00,30.7,25.3,30.25,NNE,15,3.0,6.0,80,0.00,,,0.00,Wunderground v.1.15,2013-01-15 20:56:00,
2013-01-15 15:58:00,30.7,25.0,30.25,NNE,20,4.0,7.0,79,0.00,,,0.00,Wunderground v.1.15,2013-01-15 20:58:00,
2013-01-15 16:00:00,30.7,25.0,30.24,NNE,19,2.0,2.0,79,0.00,,,0.00,Wunderground v.1.15,2013-01-15 21:00:00,
2013-01-15 16:01:00,30.7,25.0,30.24,NNE,12,6.0,6.0,79,0.00,,,0.00,Wunderground v.1.15,2013-01-15 21:01:00,
2013-01-15 16:03:00,30.7,25.0,30.24,North,9,2.0,6.0,79,0.00,,,0.00,Wunderground v.1.15,2013-01-15 21:03:00,
2013-01-15 16:05:00,30.7,25.0,30.25,North,9,3.0,6.0,79,0.00,,,0.00,Wunderground v.1.15,2013-01-15 21:05:00,
2013-01-15 16:07:00,30.7,25.0,30.25,North,9,1.0,6.0,79,0.00,,,0.00,Wunderground v.1.15,2013-01-15 21:07:00,
2013-01-15 16:08:00,30.7,25.0,30.25,North,10,2.0,6.0,79,0.00,,,0.00,Wunderground v.1.15,2013-01-15 21:08:00,
2013-01-15 16:10:00,30.8,25.1,30.24,North,11,4.0,4.0,79,0.00,,,0.00,Wunderground v.1.15,2013-01-15 21:10:00,
2013-01-15 16:12:00,30.7,24.7,30.23,NNE,15,2.0,5.0,78,0.00,,,0.00,Wunderground v.1.15,2013-01-15 21:12:00,
2013-01-15 16:13:00,30.7,24.7,30.23,NNE,15,2.0,5.0,78,0.00,,,0.00,Wunderground v.1.15,2013-01-15 21:13:00,
2013-01-15 16:15:00,30.8,25.1,30.23,NNE,20,4.0,6.0,79,0.00,,,0.00,Wunderground v.1.15,2013-01-15 21:15:00,
2013-01-15 16:16:00,30.7,25.0,30.23,NNE,22,3.0,6.0,79,0.00,,,0.00,Wunderground v.1.15,2013-01-15 21:16:00,
2013-01-15 16:17:00,30.7,25.0,30.23,NNE,22,0.0,6.0,79,0.00,,,0.00,Wunderground v.1.15,2013-01-15 21:17:00,
2013-01-15 16:18:00,30.8,25.1,30.23,NNE,22,2.0,6.0,79,0.00,,,0.00,Wunderground v.1.15,2013-01-15 21:18:00,
2013-01-15 16:20:00,30.8,25.1,30.23,NNE,22,4.0,4.0,79,0.00,,,0.00,Wunderground v.1.15,2013-01-15 21:20:00,
2013-01-15 16:21:00,30.8,25.1,30.23,NE,34,5.0,6.0,79,0.00,,,0.00,Wunderground v.1.15,2013-01-15 21:21:00,
2013-01-15 16:22:00,30.8,24.7,30.23,NE,36,2.0,6.0,78,0.00,,,0.00,Wunderground v.1.15,2013-01-15 21:22:00,
2013-01-15 16:24:00,30.7,24.7,30.21,NE,37,4.0,6.0,78,0.00,,,0.00,Wunderground v.1.15,2013-01-15 21:24:00,
2013-01-15 16:25:00,30.7,24.7,30.21,NE,37,3.0,6.0,78,0.00,,,0.00,Wunderground v.1.15,2013-01-15 21:25:00,
2013-01-15 16:26:00,30.7,24.7,30.21,NE,38,4.0,6.0,78,0.00,,,0.00,Wunderground v.1.15,2013-01-15 21:26:00,
2013-01-15 16:27:00,30.7,24.7,30.21,ENE,76,7.0,10.0,78,0.00,,,0.00,Wunderground v.1.15,2013-01-15 21:27:00,
2013-01-15 16:29:00,30.7,24.7,30.21,East,94,1.0,10.0,78,0.00,,,0.00,Wunderground v.1.15,2013-01-15 21:29:00,
2013-01-15 16:30:00,30.7,25.0,30.21,East,93,0.0,3.0,79,0.00,,,0.00,Wunderground v.1.15,2013-01-15 21:30:00,
2013-01-15 16:31:00,30.7,25.0,30.21,East,94,0.0,3.0,79,0.00,,,0.00,Wunderground v.1.15,2013-01-15 21:31:00,
2013-01-15 16:32:00,30.7,25.0,30.21,East,88,1.0,5.0,79,0.00,,,0.00,Wunderground v.1.15,2013-01-15 21:32:00,
2013-01-15 16:34:00,30.7,25.0,30.20,East,83,0.0,5.0,79,0.00,,,0.00,Wunderground v.1.15,2013-01-15 21:34:00,
2013-01-15 16:35:00,30.7,25.0,30.20,East,83,2.0,5.0,79,0.00,,,0.00,Wunderground v.1.15,2013-01-15 21:35:00,
2013-01-15 16:36:00,30.7,25.0,30.20,East,80,4.0,5.0,79,0.00,,,0.00,Wunderground v.1.15,2013-01-15 21:36:00,
2013-01-15 16:37:00,30.7,24.7,30.21,East,84,3.0,7.0,78,0.00,,,0.00,Wunderground v.1.15,2013-01-15 21:37:00,
2013-01-15 16:40:00,30.7,24.7,30.22,East,86,0.0,7.0,78,0.00,,,0.00,Wunderground v.1.15,2013-01-15 21:40:00,
2013-01-15 16:41:00,30.7,24.7,30.22,East,86,0.0,2.0,78,0.00,,,0.00,Wunderground v.1.15,2013-01-15 21:41:00,
2013-01-15 16:42:00,30.8,25.1,30.23,East,86,3.0,3.0,79,0.00,,,0.00,Wunderground v.1.15,2013-01-15 21:42:00,
2013-01-15 16:45:00,30.8,25.1,30.24,East,83,1.0,5.0,79,0.00,,,0.00,Wunderground v.1.15,2013-01-15 21:45:00,
2013-01-15 16:47:00,30.8,24.7,30.24,East,82,0.0,5.0,78,0.00,,,0.00,Wunderground v.1.15,2013-01-15 21:47:00,
2013-01-15 16:48:00,30.8,24.7,30.24,East,81,1.0,5.0,78,0.00,,,0.00,Wunderground v.1.15,2013-01-15 21:48:00,
2013-01-15 16:50:00,30.8,24.7,30.25,NE,55,1.0,2.0,78,0.00,,,0.00,Wunderground v.1.15,2013-01-15 21:50:00,
2013-01-15 16:52:00,30.8,24.7,30.26,NE,53,3.0,4.0,78,0.00,,,0.00,Wunderground v.1.15,2013-01-15 21:52:00,
2013-01-15 16:53:00,30.8,24.7,30.25,NE,53,1.0,4.0,78,0.00,,,0.00,Wunderground v.1.15,2013-01-15 21:53:00,
2013-01-15 16:55:00,30.8,24.7,30.25,NE,53,1.0,4.0,78,0.00,,,0.00,Wunderground v.1.15,2013-01-15 21:55:00,
2013-01-15 16:57:00,30.8,24.7,30.25,NE,53,2.0,4.0,78,0.00,,,0.00,Wunderground v.1.15,2013-01-15 21:57:00,
2013-01-15 16:58:00,30.8,24.7,30.24,NE,53,5.0,5.0,78,0.00,,,0.00,Wunderground v.1.15,2013-01-15 21:58:00,
2013-01-15 17:00:00,30.8,24.7,30.23,NE,53,3.0,4.0,78,0.00,,,0.00,Wunderground v.1.15,2013-01-15 22:00:00,
2013-01-15 17:01:00,30.8,24.7,30.23,NE,53,2.0,4.0,78,0.00,,,0.00,Wunderground v.1.15,2013-01-15 22:01:00,
2013-01-15 17:02:00,30.8,24.7,30.23,NE,53,1.0,4.0,78,0.00,,,0.00,Wunderground v.1.15,2013-01-15 22:02:00,
2013-01-15 17:04:00,30.8,25.1,30.22,NNE,20,3.0,9.0,79,0.00,,,0.00,Wunderground v.1.15,2013-01-15 22:04:00,
2013-01-15 17:06:00,30.8,25.1,30.23,NNE,20,0.0,9.0,79,0.00,,,0.00,Wunderground v.1.15,2013-01-15 22:06:00,
2013-01-15 17:07:00,30.8,25.1,30.23,NNE,18,3.0,9.0,79,0.00,,,0.00,Wunderground v.1.15,2013-01-15 22:07:00,
2013-01-15 17:09:00,30.8,24.7,30.25,NNE,15,5.0,9.0,78,0.00,,,0.00,Wunderground v.1.15,2013-01-15 22:09:00,
2013-01-15 17:11:00,30.8,24.7,30.25,North,3,2.0,7.0,78,0.00,,,0.00,Wunderground v.1.15,2013-01-15 22:11:00,
2013-01-15 17:12:00,30.8,24.7,30.24,North,7,3.0,7.0,78,0.00,,,0.00,Wunderground v.1.15,2013-01-15 22:12:00,
2013-01-15 17:14:00,30.8,24.7,30.24,North,7,2.0,7.0,78,0.00,,,0.00,Wunderground v.1.15,2013-01-15 22:14:00,
2013-01-15 17:16:00,30.8,24.7,30.24,North,7,0.0,7.0,78,0.00,,,0.00,Wunderground v.1.15,2013-01-15 22:16:00,
2013-01-15 17:17:00,30.8,24.7,30.24,North,7,0.0,7.0,78,0.00,,,0.00,Wunderground v.1.15,2013-01-15 22:17:00,
2013-01-15 17:19:00,30.8,24.7,30.24,North,7,0.0,7.0,78,0.00,,,0.00,Wunderground v.1.15,2013-01-15 22:19:00,
2013-01-15 17:21:00,30.8,24.7,30.23,North,7,1.0,3.0,78,0.00,,,0.00,Wunderground v.1.15,2013-01-15 22:21:00,
2013-01-15 17:22:00,30.8,24.7,30.23,North,7,2.0,3.0,78,0.00,,,0.00,Wunderground v.1.15,2013-01-15 22:22:00,
2013-01-15 17:24:00,30.8,24.7,30.23,North,11,3.0,4.0,78,0.00,,,0.00,Wunderground v.1.15,2013-01-15 22:24:00,
2013-01-15 17:26:00,30.8,24.7,30.23,North,11,0.0,4.0,78,0.00,,,0.00,Wunderground v.1.15,2013-01-15 22:26:00,
2013-01-15 17:27:00,30.8,24.7,30.23,North,11,3.0,4.0,78,0.00,,,0.00,Wunderground v.1.15,2013-01-15 22:27:00,
2013-01-15 17:29:00,30.8,24.7,30.23,North,11,2.0,4.0,78,0.00,,,0.00,Wunderground v.1.15,2013-01-15 22:29:00,
2013-01-15 17:31:00,30.8,24.7,30.23,North,11,2.0,2.0,78,0.00,,,0.00,Wunderground v.1.15,2013-01-15 22:31:00,
2013-01-15 17:32:00,30.8,24.7,30.24,North,11,0.0,2.0,78,0.00,,,0.00,Wunderground v.1.15,2013-01-15 22:32:00,
2013-01-15 17:35:00,30.8,24.7,30.23,North,11,3.0,3.0,78,0.00,,,0.00,Wunderground v.1.15,2013-01-15 22:35:00,
2013-01-15 17:36:00,30.8,24.7,30.23,NNE,12,3.0,4.0,78,0.00,,,0.00,Wunderground v.1.15,2013-01-15 22:36:00,
2013-01-15 17:37:00,30.9,24.8,30.23,NNE,12,3.0,4.0,78,0.00,,,0.00,Wunderground v.1.15,2013-01-15 22:37:00,
2013-01-15 17:38:00,30.9,24.8,30.23,NNE,13,5.0,5.0,78,0.00,,,0.00,Wunderground v.1.15,2013-01-15 22:38:00,
2013-01-15 17:40:00,30.8,24.7,30.22,NNE,15,0.0,5.0,78,0.00,,,0.00,Wunderground v.1.15,2013-01-15 22:40:00,
2013-01-15 17:41:00,30.9,25.2,30.22,NNE,15,0.0,2.0,79,0.00,,,0.00,Wunderground v.1.15,2013-01-15 22:41:00,
2013-01-15 17:42:00,30.9,25.2,30.22,NNE,15,0.0,3.0,79,0.00,,,0.00,Wunderground v.1.15,2013-01-15 22:42:00,
2013-01-15 17:43:00,30.9,24.8,30.22,NNE,16,0.0,3.0,78,0.00,,,0.00,Wunderground v.1.15,2013-01-15 22:43:00,
2013-01-15 17:45:00,30.9,24.8,30.23,NNE,16,1.0,3.0,78,0.00,,,0.00,Wunderground v.1.15,2013-01-15 22:45:00,
2013-01-15 17:46:00,30.9,24.8,30.23,NNE,15,2.0,3.0,78,0.00,,,0.00,Wunderground v.1.15,2013-01-15 22:46:00,
2013-01-15 17:47:00,30.9,24.8,30.23,NNE,16,0.0,3.0,78,0.00,,,0.00,Wunderground v.1.15,2013-01-15 22:47:00,
2013-01-15 17:48:00,30.9,24.8,30.23,NNE,15,0.0,3.0,78,0.00,,,0.00,Wunderground v.1.15,2013-01-15 22:48:00,
2013-01-15 17:50:00,30.9,25.2,30.24,NNE,16,2.0,2.0,79,0.00,,,0.00,Wunderground v.1.15,2013-01-15 22:50:00,
2013-01-15 17:51:00,30.9,24.8,30.24,NNE,16,2.0,4.0,78,0.00,,,0.00,Wunderground v.1.15,2013-01-15 22:51:00,
2013-01-15 17:52:00,30.9,24.8,30.24,NNE,16,2.0,4.0,78,0.00,,,0.00,Wunderground v.1.15,2013-01-15 22:52:00,
2013-01-15 17:53:00,31.0,24.9,30.24,NNE,16,1.0,4.0,78,0.00,,,0.00,Wunderground v.1.15,2013-01-15 22:53:00,
2013-01-15 17:55:00,30.9,24.8,30.25,NNE,16,0.0,4.0,78,0.00,,,0.00,Wunderground v.1.15,2013-01-15 22:55:00,
2013-01-15 17:57:00,31.0,24.9,30.25,NNE,16,1.0,4.0,78,0.00,,,0.00,Wunderground v.1.15,2013-01-15 22:57:00,
2013-01-15 17:59:00,31.0,24.9,30.24,NNE,15,3.0,4.0,78,0.00,,,0.00,Wunderground v.1.15,2013-01-15 22:59:00,
2013-01-15 18:00:00,31.0,24.9,30.24,NNE,13,4.0,4.0,78,0.00,,,0.00,Wunderground v.1.15,2013-01-15 23:00:00,
2013-01-15 18:02:00,31.0,24.9,30.24,NNE,15,2.0,4.0,78,0.00,,,0.00,Wunderground v.1.15,2013-01-15 23:02:00,
2013-01-15 18:04:00,31.0,24.9,30.24,NNE,14,2.0,4.0,78,0.00,,,0.00,Wunderground v.1.15,2013-01-15 23:04:00,
2013-01-15 18:06:00,31.1,25.0,30.24,NNE,14,0.0,4.0,78,0.00,,,0.00,Wunderground v.1.15,2013-01-15 23:06:00,
2013-01-15 18:07:00,31.1,25.0,30.23,NNE,18,1.0,5.0,78,0.00,,,0.00,Wunderground v.1.15,2013-01-15 23:07:00,
2013-01-15 18:08:00,31.1,25.0,30.23,NNE,15,3.0,5.0,78,0.00,,,0.00,Wunderground v.1.15,2013-01-15 23:08:00,
2013-01-15 18:09:00,31.1,25.0,30.23,NNE,15,2.0,5.0,78,0.00,,,0.00,Wunderground v.1.15,2013-01-15 23:09:00,
2013-01-15 18:11:00,31.0,24.9,30.23,North,11,3.0,5.0,78,0.00,,,0.00,Wunderground v.1.15,2013-01-15 23:11:00,
2013-01-15 18:12:00,31.0,24.9,30.22,North,9,2.0,5.0,78,0.00,,,0.00,Wunderground v.1.15,2013-01-15 23:12:00,
2013-01-15 18:13:00,31.0,25.2,30.22,North,9,0.0,5.0,79,0.00,,,0.00,Wunderground v.1.15,2013-01-15 23:13:00,
2013-01-15 18:14:00,31.0,25.2,30.22,North,9,0.0,5.0,79,0.00,,,0.00,Wunderground v.1.15,2013-01-15 23:14:00,
2013-01-15 18:16:00,31.0,25.2,30.22,North,9,2.0,5.0,79,0.00,,,0.00,Wunderground v.1.15,2013-01-15 23:16:00,
2013-01-15 18:17:00,31.0,25.6,30.22,North,9,2.0,5.0,80,0.00,,,0.00,Wunderground v.1.15,2013-01-15 23:17:00,
2013-01-15 18:18:00,31.0,25.6,30.21,North,9,2.0,5.0,80,0.00,,,0.00,Wunderground v.1.15,2013-01-15 23:18:00,
2013-01-15 18:19:00,31.0,25.9,30.21,North,10,3.0,5.0,81,0.00,,,0.00,Wunderground v.1.15,2013-01-15 23:19:00,
2013-01-15 18:21:00,31.0,25.9,30.21,North,9,1.0,2.0,81,0.00,,,0.00,Wunderground v.1.15,2013-01-15 23:21:00,
2013-01-15 18:22:00,31.0,26.1,30.21,North,9,1.0,3.0,82,0.00,,,0.00,Wunderground v.1.15,2013-01-15 23:22:00,
2013-01-15 18:23:00,31.0,26.1,30.22,North,10,1.0,3.0,82,0.00,,,0.00,Wunderground v.1.15,2013-01-15 23:23:00,
2013-01-15 18:24:00,31.0,26.4,30.22,North,10,2.0,3.0,83,0.00,,,0.00,Wunderground v.1.15,2013-01-15 23:24:00,
2013-01-15 18:26:00,30.9,26.3,30.21,North,9,0.0,3.0,83,0.00,,,0.00,Wunderground v.1.15,2013-01-15 23:26:00,
2013-01-15 18:27:00,30.9,26.3,30.21,North,10,1.0,3.0,83,0.00,,,0.00,Wunderground v.1.15,2013-01-15 23:27:00,
2013-01-15 18:28:00,30.9,26.3,30.21,North,10,1.0,3.0,83,0.00,,,0.00,Wunderground v.1.15,2013-01-15 23:28:00,
2013-01-15 18:29:00,30.9,26.6,30.21,North,10,2.0,3.0,84,0.00,,,0.00,Wunderground v.1.15,2013-01-15 23:29:00,
2013-01-15 18:32:00,30.9,26.6,30.21,North,9,0.0,1.0,84,0.00,,,0.00,Wunderground v.1.15,2013-01-15 23:32:00,
2013-01-15 18:34:00,30.9,26.6,30.21,North,9,0.0,2.0,84,0.00,,,0.00,Wunderground v.1.15,2013-01-15 23:34:00,
2013-01-15 18:35:00,30.9,26.6,30.21,North,10,1.0,2.0,84,0.00,,,0.00,Wunderground v.1.15,2013-01-15 23:35:00,
2013-01-15 18:37:00,30.9,26.9,30.20,North,9,1.0,2.0,85,0.00,,,0.00,Wunderground v.1.15,2013-01-15 23:37:00,
2013-01-15 18:40:00,30.8,26.8,30.20,NNE,18,2.0,2.0,85,0.00,,,0.00,Wunderground v.1.15,2013-01-15 23:40:00,
2013-01-15 18:42:00,30.8,27.1,30.20,NNE,19,0.0,4.0,86,0.00,,,0.00,Wunderground v.1.15,2013-01-15 23:42:00,
2013-01-15 18:45:00,30.7,27.0,30.20,NNE,24,2.0,6.0,86,0.00,,,0.00,Wunderground v.1.15,2013-01-15 23:45:00,
2013-01-15 18:47:00,30.7,27.0,30.20,NE,43,4.0,7.0,86,0.00,,,0.00,Wunderground v.1.15,2013-01-15 23:47:00,
2013-01-15 18:50:00,30.5,26.8,30.19,NE,47,3.0,3.0,86,0.00,,,0.00,Wunderground v.1.15,2013-01-15 23:50:00,
2013-01-15 18:52:00,30.5,27.1,30.19,NE,47,4.0,4.0,87,0.00,,,0.00,Wunderground v.1.15,2013-01-15 23:52:00,
2013-01-15 18:55:00,30.4,27.0,30.19,NE,49,3.0,5.0,87,0.00,,,0.00,Wunderground v.1.15,2013-01-15 23:55:00,
2013-01-15 18:57:00,30.4,27.0,30.20,NE,53,3.0,6.0,87,0.00,,,0.00,Wunderground v.1.15,2013-01-15 23:57:00,
2013-01-15 19:00:00,30.4,27.3,30.20,NE,55,3.0,3.0,88,0.00,,,0.00,Wunderground v.1.15,2013-01-16 00:00:00,
2013-01-15 19:02:00,30.3,27.2,30.20,ENE,57,0.0,5.0,88,0.00,,,0.00,Wunderground v.1.15,2013-01-16 00:02:00,
2013-01-15 19:05:00,30.3,27.4,30.20,ENE,59,2.0,6.0,89,0.00,,,0.00,Wunderground v.1.15,2013-01-16 00:05:00,
2013-01-15 19:06:00,30.4,27.5,30.20,ENE,59,2.0,6.0,89,0.00,,,0.00,Wunderground v.1.15,2013-01-16 00:06:00,
2013-01-15 19:07:00,30.3,27.4,30.20,ENE,59,0.0,6.0,89,0.00,,,0.00,Wunderground v.1.15,2013-01-16 00:07:00,
2013-01-15 19:11:00,30.3,27.4,30.19,East,84,4.0,5.0,89,0.00,,,0.00,Wunderground v.1.15,2013-01-16 00:11:00,
2013-01-15 19:12:00,30.4,27.5,30.19,East,84,2.0,6.0,89,0.00,,,0.00,Wunderground v.1.15,2013-01-16 00:12:00,
2013-01-15 19:13:00,30.4,27.5,30.20,East,84,0.0,6.0,89,0.00,,,0.00,Wunderground v.1.15,2013-01-16 00:13:00,
2013-01-15 19:16:00,30.4,27.5,30.20,East,84,2.0,6.0,89,0.00,,,0.00,Wunderground v.1.15,2013-01-16 00:16:00,
2013-01-15 19:18:00,30.4,27.8,30.19,East,84,3.0,6.0,90,0.00,,,0.00,Wunderground v.1.15,2013-01-16 00:18:00,
2013-01-15 19:21:00,30.5,27.9,30.19,East,84,1.0,3.0,90,0.00,,,0.00,Wunderground v.1.15,2013-01-16 00:21:00,
2013-01-15 19:23:00,30.5,27.9,30.19,East,83,2.0,6.0,90,0.00,,,0.00,Wunderground v.1.15,2013-01-16 00:23:00,
2013-01-15 19:26:00,30.5,27.9,30.19,East,82,1.0,7.0,90,0.00,,,0.00,Wunderground v.1.15,2013-01-16 00:26:00,
2013-01-15 19:28:00,30.6,28.0,30.19,East,84,6.0,7.0,90,0.00,,,0.00,Wunderground v.1.15,2013-01-16 00:28:00,
2013-01-15 19:31:00,30.5,27.9,30.19,East,84,1.0,3.0,90,0.00,,,0.00,Wunderground v.1.15,2013-01-16 00:31:00,
2013-01-15 19:33:00,30.5,27.9,30.18,East,86,1.0,5.0,90,0.00,,,0.00,Wunderground v.1.15,2013-01-16 00:33:00,
2013-01-15 19:36:00,30.6,28.0,30.18,East,86,0.0,5.0,90,0.00,,,0.00,Wunderground v.1.15,2013-01-16 00:36:00,
2013-01-15 19:38:00,30.6,28.3,30.18,East,85,2.0,5.0,91,0.00,,,0.00,Wunderground v.1.15,2013-01-16 00:38:00,
2013-01-15 19:41:00,30.6,28.3,30.18,East,86,0.0,1.0,91,0.00,,,0.00,Wunderground v.1.15,2013-01-16 00:41:00,
2013-01-15 19:43:00,30.6,28.3,30.18,East,86,0.0,2.0,91,0.00,,,0.00,Wunderground v.1.15,2013-01-16 00:43:00,
2013-01-15 19:46:00,30.6,28.3,30.18,East,86,0.0,2.0,91,0.00,,,0.00,Wunderground v.1.15,2013-01-16 00:46:00,
2013-01-15 19:47:00,30.7,28.4,30.18,East,85,0.0,2.0,91,0.00,,,0.00,Wunderground v.1.15,2013-01-16 00:47:00,
2013-01-15 19:49:00,30.7,28.4,30.18,East,86,2.0,2.0,91,0.00,,,0.00,Wunderground v.1.15,2013-01-16 00:49:00,
2013-01-15 19:52:00,30.7,28.4,30.18,East,85,2.0,5.0,91,0.00,,,0.00,Wunderground v.1.15,2013-01-16 00:52:00,
2013-01-15 19:54:00,30.7,28.4,30.19,East,85,0.0,5.0,91,0.00,,,0.00,Wunderground v.1.15,2013-01-16 00:54:00,
2013-01-15 19:57:00,30.7,28.4,30.19,East,88,5.0,5.0,91,0.00,,,0.00,Wunderground v.1.15,2013-01-16 00:57:00,
2013-01-15 19:59:00,30.7,28.4,30.18,East,97,6.0,7.0,91,0.00,,,0.00,Wunderground v.1.15,2013-01-16 00:59:00,
2013-01-15 20:02:00,30.6,28.3,30.18,East,99,3.0,7.0,91,0.00,,,0.00,Wunderground v.1.15,2013-01-16 01:02:00,
2013-01-15 20:04:00,30.6,28.3,30.18,East,98,1.0,7.0,91,0.00,,,0.00,Wunderground v.1.15,2013-01-16 01:04:00,
2013-01-15 20:07:00,30.6,28.6,30.17,East,98,6.0,7.0,92,0.00,,,0.00,Wunderground v.1.15,2013-01-16 01:07:00,
2013-01-15 20:09:00,30.6,28.6,30.17,East,91,2.0,7.0,92,0.00,,,0.00,Wunderground v.1.15,2013-01-16 01:09:00,
2013-01-15 20:12:00,30.7,28.7,30.17,ESE,111,4.0,9.0,92,0.00,,,0.00,Wunderground v.1.15,2013-01-16 01:12:00,
2013-01-15 20:14:00,30.7,28.7,30.17,ESE,111,2.0,9.0,92,0.00,,,0.00,Wunderground v.1.15,2013-01-16 01:14:00,
2013-01-15 20:17:00,30.7,28.7,30.17,ESE,111,3.0,9.0,92,0.00,,,0.00,Wunderground v.1.15,2013-01-16 01:17:00,
2013-01-15 20:19:00,30.7,28.7,30.17,ESE,111,2.0,9.0,92,0.00,,,0.00,Wunderground v.1.15,2013-01-16 01:19:00,
2013-01-15 20:22:00,30.7,28.7,30.17,ESE,111,4.0,4.0,92,0.00,,,0.00,Wunderground v.1.15,2013-01-16 01:22:00,
2013-01-15 20:23:00,30.7,28.7,30.17,ESE,111,3.0,5.0,92,0.00,,,0.00,Wunderground v.1.15,2013-01-16 01:23:00,
2013-01-15 20:24:00,30.7,28.7,30.17,ESE,111,1.0,5.0,92,0.00,,,0.00,Wunderground v.1.15,2013-01-16 01:24:00,
2013-01-15 20:28:00,30.7,28.7,30.17,ESE,105,2.0,6.0,92,0.00,,,0.00,Wunderground v.1.15,2013-01-16 01:28:00,
2013-01-15 20:29:00,30.7,28.7,30.17,ESE,105,1.0,6.0,92,0.00,,,0.00,Wunderground v.1.15,2013-01-16 01:29:00,
2013-01-15 20:30:00,30.7,28.7,30.16,ESE,105,2.0,2.0,92,0.00,,,0.00,Wunderground v.1.15,2013-01-16 01:30:00,
2013-01-15 20:33:00,30.6,28.6,30.16,ESE,104,2.0,4.0,92,0.00,,,0.00,Wunderground v.1.15,2013-01-16 01:33:00,
2013-01-15 20:34:00,30.7,28.7,30.16,ESE,104,0.0,4.0,92,0.00,,,0.00,Wunderground v.1.15,2013-01-16 01:34:00,
2013-01-15 20:36:00,30.7,28.7,30.16,ESE,105,2.0,4.0,92,0.00,,,0.00,Wunderground v.1.15,2013-01-16 01:36:00,
2013-01-15 20:38:00,30.7,28.7,30.16,ESE,103,6.0,7.0,92,0.00,,,0.00,Wunderground v.1.15,2013-01-16 01:38:00,
2013-01-15 20:40:00,30.7,28.7,30.16,ESE,108,3.0,7.0,92,0.00,,,0.00,Wunderground v.1.15,2013-01-16 01:40:00,
2013-01-15 20:41:00,30.7,28.7,30.16,ESE,108,0.0,4.0,92,0.00,,,0.00,Wunderground v.1.15,2013-01-16 01:41:00,
2013-01-15 20:43:00,30.7,28.7,30.16,ESE,108,1.0,4.0,92,0.00,,,0.00,Wunderground v.1.15,2013-01-16 01:43:00,
2013-01-15 20:45:00,30.7,28.7,30.16,ESE,108,3.0,4.0,92,0.00,,,0.00,Wunderground v.1.15,2013-01-16 01:45:00,
2013-01-15 20:46:00,30.7,28.7,30.16,ESE,108,0.0,4.0,92,0.00,,,0.00,Wunderground v.1.15,2013-01-16 01:46:00,
2013-01-15 20:48:00,30.7,28.7,30.16,ESE,106,0.0,4.0,92,0.00,,,0.00,Wunderground v.1.15,2013-01-16 01:48:00,
2013-01-15 20:49:00,30.7,28.7,30.16,ESE,106,2.0,4.0,92,0.00,,,0.00,Wunderground v.1.15,2013-01-16 01:49:00,
2013-01-15 20:50:00,30.7,28.7,30.16,East,101,5.0,5.0,92,0.00,,,0.00,Wunderground v.1.15,2013-01-16 01:50:00,
2013-01-15 20:51:00,30.7,28.7,30.16,East,99,3.0,5.0,92,0.00,,,0.00,Wunderground v.1.15,2013-01-16 01:51:00,
2013-01-15 20:53:00,30.7,28.7,30.16,East,96,3.0,6.0,92,0.00,,,0.00,Wunderground v.1.15,2013-01-16 01:53:00,
2013-01-15 20:54:00,30.7,28.7,30.16,East,96,2.0,6.0,92,0.00,,,0.00,Wunderground v.1.15,2013-01-16 01:54:00,
2013-01-15 20:55:00,30.7,28.7,30.16,East,96,0.0,6.0,92,0.00,,,0.00,Wunderground v.1.15,2013-01-16 01:55:00,
2013-01-15 20:56:00,30.7,28.7,30.16,East,96,0.0,6.0,92,0.00,,,0.00,Wunderground v.1.15,2013-01-16 01:56:00,
2013-01-15 20:58:00,30.7,28.7,30.16,East,93,2.0,6.0,92,0.00,,,0.00,Wunderground v.1.15,2013-01-16 01:58:00,
2013-01-15 20:59:00,30.6,28.6,30.16,East,93,2.0,6.0,92,0.00,,,0.00,Wunderground v.1.15,2013-01-16 01:59:00,
2013-01-15 21:00:00,30.7,28.7,30.16,East,93,0.0,2.0,92,0.00,,,0.00,Wunderground v.1.15,2013-01-16 02:00:00,
2013-01-15 21:01:00,30.7,28.7,30.16,East,93,0.0,2.0,92,0.00,,,0.00,Wunderground v.1.15,2013-01-16 02:01:00,
2013-01-15 21:03:00,30.7,28.7,30.16,East,93,0.0,2.0,92,0.00,,,0.00,Wunderground v.1.15,2013-01-16 02:03:00,
2013-01-15 21:04:00,30.7,28.7,30.16,East,93,0.0,2.0,92,0.00,,,0.00,Wunderground v.1.15,2013-01-16 02:04:00,
2013-01-15 21:05:00,30.7,28.7,30.16,East,93,0.0,2.0,92,0.00,,,0.00,Wunderground v.1.15,2013-01-16 02:05:00,
2013-01-15 21:06:00,30.7,28.7,30.17,East,93,0.0,2.0,92,0.00,,,0.00,Wunderground v.1.15,2013-01-16 02:06:00,
2013-01-15 21:08:00,30.7,28.7,30.17,East,93,0.0,2.0,92,0.00,,,0.00,Wunderground v.1.15,2013-01-16 02:08:00,
2013-01-15 21:09:00,30.7,28.7,30.17,East,93,2.0,2.0,92,0.00,,,0.00,Wunderground v.1.15,2013-01-16 02:09:00,
2013-01-15 21:10:00,30.7,28.7,30.17,East,93,0.0,3.0,92,0.00,,,0.00,Wunderground v.1.15,2013-01-16 02:10:00,
2013-01-15 21:12:00,30.7,28.7,30.17,East,93,0.0,3.0,92,0.00,,,0.00,Wunderground v.1.15,2013-01-16 02:12:00,
2013-01-15 21:14:00,30.7,28.7,30.18,East,93,2.0,3.0,92,0.00,,,0.00,Wunderground v.1.15,2013-01-16 02:14:00,
2013-01-15 21:16:00,30.8,28.8,30.18,East,92,1.0,3.0,92,0.00,,,0.00,Wunderground v.1.15,2013-01-16 02:16:00,
2013-01-15 21:17:00,30.8,28.8,30.18,East,92,3.0,3.0,92,0.00,,,0.00,Wunderground v.1.15,2013-01-16 02:17:00,
2013-01-15 21:19:00,30.8,28.8,30.17,East,92,0.0,3.0,92,0.00,,,0.00,Wunderground v.1.15,2013-01-16 02:19:00,
2013-01-15 21:21:00,30.8,28.8,30.17,East,92,0.0,1.0,92,0.00,,,0.00,Wunderground v.1.15,2013-01-16 02:21:00,
2013-01-15 21:22:00,30.8,28.8,30.16,East,92,0.0,1.0,92,0.00,,,0.00,Wunderground v.1.15,2013-01-16 02:22:00,
2013-01-15 21:24:00,30.8,28.8,30.16,East,92,1.0,3.0,92,0.00,,,0.00,Wunderground v.1.15,2013-01-16 02:24:00,
2013-01-15 21:26:00,30.8,28.8,30.15,East,92,2.0,4.0,92,0.00,,,0.00,Wunderground v.1.15,2013-01-16 02:26:00,
2013-01-15 21:27:00,30.8,28.8,30.15,East,92,0.0,4.0,92,0.00,,,0.00,Wunderground v.1.15,2013-01-16 02:27:00,
2013-01-15 21:29:00,30.8,29.0,30.14,East,92,0.0,4.0,93,0.00,,,0.00,Wunderground v.1.15,2013-01-16 02:29:00,
2013-01-15 21:31:00,30.8,29.0,30.14,East,92,0.0,2.0,93,0.00,,,0.00,Wunderground v.1.15,2013-01-16 02:31:00,
2013-01-15 21:32:00,30.8,29.0,30.14,East,92,0.0,2.0,93,0.00,,,0.00,Wunderground v.1.15,2013-01-16 02:32:00,
2013-01-15 21:34:00,30.8,29.0,30.14,East,92,2.0,4.0,93,0.00,,,0.00,Wunderground v.1.15,2013-01-16 02:34:00,
2013-01-15 21:36:00,30.8,29.0,30.14,East,91,0.0,4.0,93,0.00,,,0.00,Wunderground v.1.15,2013-01-16 02:36:00,
2013-01-15 21:37:00,30.8,29.0,30.14,East,92,0.0,4.0,93,0.00,,,0.00,Wunderground v.1.15,2013-01-16 02:37:00,
2013-01-15 21:39:00,30.8,29.0,30.15,East,92,0.0,4.0,93,0.00,,,0.00,Wunderground v.1.15,2013-01-16 02:39:00,
2013-01-15 21:41:00,30.8,29.0,30.15,East,92,0.0,2.0,93,0.00,,,0.00,Wunderground v.1.15,2013-01-16 02:41:00,
2013-01-15 21:42:00,30.8,29.0,30.15,East,90,0.0,2.0,93,0.00,,,0.00,Wunderground v.1.15,2013-01-16 02:42:00,
2013-01-15 21:44:00,30.8,29.0,30.15,East,92,0.0,2.0,93,0.00,,,0.00,Wunderground v.1.15,2013-01-16 02:44:00,
2013-01-15 21:45:00,30.8,29.0,30.15,East,92,0.0,2.0,93,0.00,,,0.00,Wunderground v.1.15,2013-01-16 02:45:00,
2013-01-15 21:46:00,30.8,29.0,30.15,East,91,0.0,2.0,93,0.00,,,0.00,Wunderground v.1.15,2013-01-16 02:46:00,
2013-01-15 21:47:00,30.8,29.0,30.14,East,92,1.0,2.0,93,0.00,,,0.00,Wunderground v.1.15,2013-01-16 02:47:00,
2013-01-15 21:49:00,30.8,29.0,30.14,East,90,0.0,2.0,93,0.00,,,0.00,Wunderground v.1.15,2013-01-16 02:49:00,
2013-01-15 21:50:00,30.8,29.0,30.14,East,92,0.0,0.0,93,0.00,,,0.00,Wunderground v.1.15,2013-01-16 02:50:00,
2013-01-15 21:51:00,30.8,29.0,30.14,East,92,0.0,0.0,93,0.00,,,0.00,Wunderground v.1.15,2013-01-16 02:51:00,
2013-01-15 21:52:00,30.8,29.0,30.15,East,88,1.0,4.0,93,0.00,,,0.00,Wunderground v.1.15,2013-01-16 02:52:00,
2013-01-15 21:54:00,30.8,29.0,30.15,East,88,0.0,4.0,93,0.00,,,0.00,Wunderground v.1.15,2013-01-16 02:54:00,
2013-01-15 21:55:00,30.7,28.9,30.15,East,88,1.0,4.0,93,0.00,,,0.00,Wunderground v.1.15,2013-01-16 02:55:00,
2013-01-15 21:56:00,30.7,28.9,30.15,East,88,0.0,4.0,93,0.00,,,0.00,Wunderground v.1.15,2013-01-16 02:56:00,
2013-01-15 21:57:00,30.7,28.9,30.15,East,88,0.0,4.0,93,0.00,,,0.00,Wunderground v.1.15,2013-01-16 02:57:00,
2013-01-15 21:59:00,30.7,28.9,30.15,East,88,1.0,4.0,93,0.00,,,0.00,Wunderground v.1.15,2013-01-16 02:59:00,
2013-01-15 22:00:00,30.7,28.9,30.15,East,88,1.0,3.0,93,0.00,,,0.00,Wunderground v.1.15,2013-01-16 03:00:00,
2013-01-15 22:01:00,30.7,28.9,30.14,East,88,2.0,3.0,93,0.00,,,0.00,Wunderground v.1.15,2013-01-16 03:01:00,
2013-01-15 22:02:00,30.7,28.9,30.14,East,88,0.0,3.0,93,0.00,,,0.00,Wunderground v.1.15,2013-01-16 03:02:00,
2013-01-15 22:04:00,30.7,28.9,30.13,East,88,1.0,3.0,93,0.00,,,0.00,Wunderground v.1.15,2013-01-16 03:04:00,
2013-01-15 22:05:00,30.7,28.9,30.13,East,88,0.0,3.0,93,0.00,,,0.00,Wunderground v.1.15,2013-01-16 03:05:00,
2013-01-15 22:06:00,30.7,28.9,30.13,East,88,2.0,3.0,93,0.00,,,0.00,Wunderground v.1.15,2013-01-16 03:06:00,
2013-01-15 22:08:00,30.7,28.9,30.13,East,88,2.0,4.0,93,0.00,,,0.00,Wunderground v.1.15,2013-01-16 03:08:00,
2013-01-15 22:09:00,30.6,28.8,30.13,East,88,0.0,4.0,93,0.00,,,0.00,Wunderground v.1.15,2013-01-16 03:09:00,
2013-01-15 22:10:00,30.6,28.8,30.13,East,88,0.0,1.0,93,0.00,,,0.00,Wunderground v.1.15,2013-01-16 03:10:00,
2013-01-15 22:11:00,30.6,28.8,30.14,East,88,0.0,1.0,93,0.00,,,0.00,Wunderground v.1.15,2013-01-16 03:11:00,
2013-01-15 22:13:00,30.6,28.8,30.14,East,88,0.0,1.0,93,0.00,,,0.00,Wunderground v.1.15,2013-01-16 03:13:00,
2013-01-15 22:14:00,30.6,28.8,30.14,East,86,1.0,3.0,93,0.00,,,0.00,Wunderground v.1.15,2013-01-16 03:14:00,
2013-01-15 22:15:00,30.6,28.8,30.15,East,87,0.0,3.0,93,0.00,,,0.00,Wunderground v.1.15,2013-01-16 03:15:00,
2013-01-15 22:16:00,30.6,28.8,30.14,East,86,2.0,4.0,93,0.00,,,0.00,Wunderground v.1.15,2013-01-16 03:16:00,
2013-01-15 22:18:00,30.5,28.7,30.14,East,86,4.0,4.0,93,0.00,,,0.00,Wunderground v.1.15,2013-01-16 03:18:00,
2013-01-15 22:19:00,30.5,28.7,30.14,ENE,65,2.0,5.0,93,0.00,,,0.00,Wunderground v.1.15,2013-01-16 03:19:00,
2013-01-15 22:20:00,30.5,28.7,30.14,ENE,65,0.0,1.0,93,0.00,,,0.00,Wunderground v.1.15,2013-01-16 03:20:00,
2013-01-15 22:21:00,30.5,28.7,30.14,ENE,65,3.0,4.0,93,0.00,,,0.00,Wunderground v.1.15,2013-01-16 03:21:00,
2013-01-15 22:23:00,30.4,28.6,30.14,ENE,65,0.0,4.0,93,0.00,,,0.00,Wunderground v.1.15,2013-01-16 03:23:00,
2013-01-15 22:25:00,30.4,28.6,30.15,ENE,63,3.0,4.0,93,0.00,,,0.00,Wunderground v.1.15,2013-01-16 03:25:00,
2013-01-15 22:27:00,30.3,28.5,30.15,ENE,61,1.0,4.0,93,0.00,,,0.00,Wunderground v.1.15,2013-01-16 03:27:00,
2013-01-15 22:28:00,30.4,28.6,30.15,ENE,61,0.0,4.0,93,0.00,,,0.00,Wunderground v.1.15,2013-01-16 03:28:00,
2013-01-15 22:30:00,30.4,28.6,30.15,ENE,58,1.0,4.0,93,0.00,,,0.00,Wunderground v.1.15,2013-01-16 03:30:00,
2013-01-15 22:32:00,30.4,28.6,30.15,ENE,58,0.0,3.0,93,0.00,,,0.00,Wunderground v.1.15,2013-01-16 03:32:00,
2013-01-15 22:33:00,30.3,28.5,30.15,ENE,58,1.0,3.0,93,0.00,,,0.00,Wunderground v.1.15,2013-01-16 03:33:00,
2013-01-15 22:35:00,30.3,28.5,30.15,NE,55,2.0,3.0,93,0.00,,,0.00,Wunderground v.1.15,2013-01-16 03:35:00,
2013-01-15 22:37:00,30.3,28.5,30.14,NE,56,1.0,4.0,93,0.00,,,0.00,Wunderground v.1.15,2013-01-16 03:37:00,
2013-01-15 22:38:00,30.3,28.5,30.14,NE,56,2.0,4.0,93,0.00,,,0.00,Wunderground v.1.15,2013-01-16 03:38:00,
2013-01-15 22:40:00,30.3,28.5,30.14,NE,56,0.0,1.0,93,0.00,,,0.00,Wunderground v.1.15,2013-01-16 03:40:00,
2013-01-15 22:42:00,30.2,28.4,30.14,NE,56,1.0,3.0,93,0.00,,,0.00,Wunderground v.1.15,2013-01-16 03:42:00,
2013-01-15 22:43:00,30.2,28.4,30.14,NE,56,1.0,3.0,93,0.00,,,0.00,Wunderground v.1.15,2013-01-16 03:43:00,
2013-01-15 22:45:00,30.2,28.4,30.14,NE,55,2.0,3.0,93,0.00,,,0.00,Wunderground v.1.15,2013-01-16 03:45:00,
2013-01-15 22:47:00,30.2,28.4,30.14,NE,56,1.0,3.0,93,0.00,,,0.00,Wunderground v.1.15,2013-01-16 03:47:00,
2013-01-15 22:48:00,30.1,28.3,30.14,NE,56,0.0,3.0,93,0.00,,,0.00,Wunderground v.1.15,2013-01-16 03:48:00,
2013-01-15 22:50:00,30.1,28.3,30.14,NE,56,3.0,3.0,93,0.00,,,0.00,Wunderground v.1.15,2013-01-16 03:50:00,
2013-01-15 22:52:00,30.1,28.3,30.14,NE,56,2.0,3.0,93,0.00,,,0.00,Wunderground v.1.15,2013-01-16 03:52:00,
2013-01-15 22:54:00,30.0,28.2,30.13,NE,56,0.0,3.0,93,0.00,,,0.00,Wunderground v.1.15,2013-01-16 03:54:00,
2013-01-15 22:55:00,30.0,28.2,30.14,NE,56,0.0,3.0,93,0.00,,,0.00,Wunderground v.1.15,2013-01-16 03:55:00,
2013-01-15 22:57:00,30.0,28.2,30.14,NE,55,0.0,3.0,93,0.00,,,0.00,Wunderground v.1.15,2013-01-16 03:57:00,
2013-01-15 22:59:00,30.0,28.2,30.14,NE,56,0.0,3.0,93,0.00,,,0.00,Wunderground v.1.15,2013-01-16 03:59:00,
2013-01-15 23:00:00,30.0,28.2,30.14,NE,55,0.0,1.0,93,0.00,,,0.00,Wunderground v.1.15,2013-01-16 04:00:00,
2013-01-15 23:02:00,29.9,28.1,30.13,NE,56,2.0,2.0,93,0.00,,,0.00,Wunderground v.1.15,2013-01-16 04:02:00,
2013-01-15 23:04:00,29.9,28.1,30.13,NE,56,0.0,2.0,93,0.00,,,0.00,Wunderground v.1.15,2013-01-16 04:04:00,
2013-01-15 23:05:00,29.9,27.9,30.13,NE,56,0.0,2.0,92,0.00,,,0.00,Wunderground v.1.15,2013-01-16 04:05:00,
2013-01-15 23:07:00,29.9,27.9,30.13,NE,56,2.0,4.0,92,0.00,,,0.00,Wunderground v.1.15,2013-01-16 04:07:00,
2013-01-15 23:09:00,29.9,27.9,30.13,NE,56,0.0,4.0,92,0.00,,,0.00,Wunderground v.1.15,2013-01-16 04:09:00,
2013-01-15 23:10:00,29.9,27.9,30.12,NE,55,1.0,1.0,92,0.00,,,0.00,Wunderground v.1.15,2013-01-16 04:10:00,
2013-01-15 23:11:00,29.9,27.9,30.12,NE,55,2.0,3.0,92,0.00,,,0.00,Wunderground v.1.15,2013-01-16 04:11:00,
2013-01-15 23:12:00,29.9,27.9,30.12,NE,56,1.0,4.0,92,0.00,,,0.00,Wunderground v.1.15,2013-01-16 04:12:00,
2013-01-15 23:14:00,29.9,27.9,30.13,ENE,57,0.0,4.0,92,0.00,,,0.00,Wunderground v.1.15,2013-01-16 04:14:00,
2013-01-15 23:15:00,29.9,27.9,30.13,ENE,57,0.0,4.0,92,0.00,,,0.00,Wunderground v.1.15,2013-01-16 04:15:00,
2013-01-15 23:16:00,29.9,27.9,30.13,ENE,57,0.0,4.0,92,0.00,,,0.00,Wunderground v.1.15,2013-01-16 04:16:00,
2013-01-15 23:17:00,29.9,27.9,30.13,ENE,57,0.0,4.0,92,0.00,,,0.00,Wunderground v.1.15,2013-01-16 04:17:00,
2013-01-15 23:19:00,29.8,27.8,30.13,ENE,57,0.0,4.0,92,0.00,,,0.00,Wunderground v.1.15,2013-01-16 04:19:00,
2013-01-15 23:20:00,29.8,27.8,30.13,ENE,57,0.0,1.0,92,0.00,,,0.00,Wunderground v.1.15,2013-01-16 04:20:00,
2013-01-15 23:21:00,29.9,27.9,30.13,ENE,57,0.0,1.0,92,0.00,,,0.00,Wunderground v.1.15,2013-01-16 04:21:00,
2013-01-15 23:22:00,29.9,27.9,30.13,ENE,57,2.0,3.0,92,0.00,,,0.00,Wunderground v.1.15,2013-01-16 04:22:00,
2013-01-15 23:25:00,29.9,27.9,30.13,ENE,57,0.0,4.0,92,0.00,,,0.00,Wunderground v.1.15,2013-01-16 04:25:00,
2013-01-15 23:26:00,29.9,27.9,30.13,ENE,57,2.0,4.0,92,0.00,,,0.00,Wunderground v.1.15,2013-01-16 04:26:00,
2013-01-15 23:27:00,29.9,27.9,30.12,ENE,57,2.0,4.0,92,0.00,,,0.00,Wunderground v.1.15,2013-01-16 04:27:00,
2013-01-15 23:30:00,29.9,27.9,30.12,ENE,59,2.0,2.0,92,0.00,,,0.00,Wunderground v.1.15,2013-01-16 04:30:00,
2013-01-15 23:31:00,29.8,27.8,30.12,ENE,59,5.0,5.0,92,0.00,,,0.00,Wunderground v.1.15,2013-01-16 04:31:00,
2013-01-15 23:32:00,29.8,27.8,30.12,ENE,61,2.0,5.0,92,0.00,,,0.00,Wunderground v.1.15,2013-01-16 04:32:00,
2013-01-15 23:36:00,29.8,27.8,30.12,ENE,62,2.0,5.0,92,0.00,,,0.00,Wunderground v.1.15,2013-01-16 04:36:00,
2013-01-15 23:38:00,29.8,27.8,30.12,ENE,62,2.0,5.0,92,0.00,,,0.00,Wunderground v.1.15,2013-01-16 04:38:00,
2013-01-15 23:41:00,29.8,27.8,30.12,ENE,62,3.0,3.0,92,0.00,,,0.00,Wunderground v.1.15,2013-01-16 04:41:00,
2013-01-15 23:43:00,29.8,27.8,30.11,ENE,62,2.0,4.0,92,0.00,,,0.00,Wunderground v.1.15,2013-01-16 04:43:00,
2013-01-15 23:46:00,29.8,27.8,30.11,ENE,62,1.0,4.0,92,0.00,,,0.00,Wunderground v.1.15,2013-01-16 04:46:00,
2013-01-15 23:47:00,29.7,27.7,30.11,ENE,62,3.0,4.0,92,0.00,,,0.00,Wunderground v.1.15,2013-01-16 04:47:00,
2013-01-15 23:48:00,29.8,27.8,30.12,ENE,63,1.0,6.0,92,0.00,,,0.00,Wunderground v.1.15,2013-01-16 04:48:00,
2013-01-15 23:51:00,29.7,27.7,30.11,ENE,63,0.0,2.0,92,0.00,,,0.00,Wunderground v.1.15,2013-01-16 04:51:00,
2013-01-15 23:52:00,29.8,27.8,30.11,ENE,63,0.0,2.0,92,0.00,,,0.00,Wunderground v.1.15,2013-01-16 04:52:00,
2013-01-15 23:53:00,29.8,27.8,30.11,ENE,63,0.0,2.0,92,0.00,,,0.00,Wunderground v.1.15,2013-01-16 04:53:00,
2013-01-15 23:56:00,29.8,27.8,30.11,ENE,63,0.0,2.0,92,0.00,,,0.00,Wunderground v.1.15,2013-01-16 04:56:00,
2013-01-15 23:57:00,29.7,27.7,30.11,ENE,63,0.0,2.0,92,0.00,,,0.00,Wunderground v.1.15,2013-01-16 04:57:00,
2013-01-15 23:58:00,29.8,27.8,30.11,ENE,63,0.0,2.0,92,0.00,,,0.00,Wunderground v.1.15,2013-01-16 04:58:00,